Observation data for Crowell on 12/07/2018      Previous  Date       Current Mesonet Observations  Soil Data  Daily Summary Page  Observations in Plain Language
KCR1 070600Z 01010KT 04/M02 A3034 RMK A01 T00421017  RH  066%=      5-min Rain = 0
KCR1 070601Z 01010KT 04/M02 A3034 RMK A01 T00411017  RH  066%=      5-min Rain = 0
KCR1 070602Z 02010KT 04/M02 A3034 RMK A01 T00411017  RH  066%=      5-min Rain = 0
KCR1 070603Z 01011KT 04/M02 A3034 RMK A01 T00411017  RH  066%=      5-min Rain = 0
KCR1 070604Z 01009KT 04/M02 A3033 RMK A01 T00421016  RH  066%=      5-min Rain = 0
KCR1 070605Z 01010KT 04/M02 A3033 RMK A01 T00421016  RH  066%=      5-min Rain = 0
KCR1 070606Z 01009KT 04/M02 A3033 RMK A01 T00411016  RH  066%=      5-min Rain = 0
KCR1 070607Z 02010KT 04/M02 A3033 RMK A01 T00411015  RH  066%=      5-min Rain = 0
KCR1 070608Z 02009KT 04/M02 A3033 RMK A01 T00411016  RH  066%=      5-min Rain = 0
KCR1 070609Z 01009KT 04/M02 A3033 RMK A01 T00411016  RH  066%=      5-min Rain = 0
KCR1 070610Z 01010KT 04/M02 A3033 RMK A01 T00411015  RH  067%=      5-min Rain = 0
KCR1 070611Z 01008KT 04/M02 A3033 RMK A01 T00411015  RH  066%=      5-min Rain = 0
KCR1 070612Z 01009KT 04/M02 A3033 RMK A01 T00421015  RH  067%=      5-min Rain = 0
KCR1 070613Z 01009KT 04/M02 A3033 RMK A01 T00411015  RH  067%=      5-min Rain = 0
KCR1 070614Z 01009KT 04/M02 A3033 RMK A01 T00411015  RH  067%=      5-min Rain = 0
KCR1 070615Z 01010KT 04/M02 A3033 RMK A01 T00421015  RH  067%=      5-min Rain = 0
KCR1 070616Z 01011KT 04/M02 A3033 RMK A01 T00411016  RH  066%=      5-min Rain = 0
KCR1 070617Z 01011KT 04/M02 A3033 RMK A01 T00411017  RH  066%=      5-min Rain = 0
KCR1 070618Z 01012KT 04/M02 A3033 RMK A01 T00411017  RH  066%=      5-min Rain = 0
KCR1 070619Z 00011KT 04/M02 A3033 RMK A01 T00411018  RH  065%=      5-min Rain = 0
KCR1 070620Z 01012KT 04/M02 A3033 RMK A01 T00411018  RH  065%=      5-min Rain = 0
KCR1 070621Z 01012KT 04/M02 A3033 RMK A01 T00411018  RH  065%=      5-min Rain = 0
KCR1 070622Z 01010KT 04/M02 A3033 RMK A01 T00411018  RH  066%=      5-min Rain = 0
KCR1 070623Z 01010KT 04/M02 A3033 RMK A01 T00411017  RH  066%=      5-min Rain = 0
KCR1 070624Z 01012KT 04/M02 A3033 RMK A01 T00411018  RH  066%=      5-min Rain = 0
KCR1 070625Z 01012KT 04/M02 A3033 RMK A01 T00411018  RH  065%=      5-min Rain = 0
KCR1 070626Z 01013KT 04/M02 A3033 RMK A01 T00411018  RH  066%=      5-min Rain = 0
KCR1 070627Z 01012KT 04/M02 A3033 RMK A01 T00401018  RH  066%=      5-min Rain = 0
KCR1 070628Z 00010KT 04/M02 A3033 RMK A01 T00401018  RH  066%=      5-min Rain = 0
KCR1 070629Z 01010KT 04/M02 A3033 RMK A01 T00411018  RH  066%=      5-min Rain = 0
KCR1 070630Z 01009KT 04/M02 A3033 RMK A01 T00401018  RH  066%=      5-min Rain = 0
KCR1 070631Z 01010KT 04/M02 A3033 RMK A01 T00401017  RH  066%=      5-min Rain = 0
KCR1 070632Z 01010KT 04/M02 A3033 RMK A01 T00411017  RH  066%=      5-min Rain = 0
KCR1 070633Z 00012KT 04/M02 A3033 RMK A01 T00401017  RH  066%=      5-min Rain = 0
KCR1 070634Z 00010KT 04/M02 A3034 RMK A01 T00411017  RH  066%=      5-min Rain = 0
KCR1 070635Z 01010KT 04/M02 A3034 RMK A01 T00401017  RH  066%=      5-min Rain = 0
KCR1 070636Z 01010KT 04/M02 A3034 RMK A01 T00411017  RH  066%=      5-min Rain = 0
KCR1 070637Z 01009KT 04/M02 A3034 RMK A01 T00401018  RH  066%=      5-min Rain = 0
KCR1 070638Z 01009KT 04/M02 A3034 RMK A01 T00401018  RH  066%=      5-min Rain = 0
KCR1 070639Z 02009KT 04/M02 A3034 RMK A01 T00401018  RH  066%=      5-min Rain = 0
KCR1 070640Z 01008KT 04/M02 A3034 RMK A01 T00401017  RH  066%=      5-min Rain = 0
KCR1 070641Z 01007KT 04/M02 A3034 RMK A01 T00401016  RH  067%=      5-min Rain = 0
KCR1 070642Z 00008KT 04/M02 A3034 RMK A01 T00401016  RH  067%=      5-min Rain = 0
KCR1 070643Z 01009KT 04/M02 A3034 RMK A01 T00401017  RH  066%=      5-min Rain = 0
KCR1 070644Z 01010KT 04/M02 A3034 RMK A01 T00401017  RH  066%=      5-min Rain = 0
KCR1 070645Z 01009KT 04/M02 A3034 RMK A01 T00401017  RH  066%=      5-min Rain = 0
KCR1 070646Z 01009KT 04/M02 A3034 RMK A01 T00401017  RH  066%=      5-min Rain = 0
KCR1 070647Z 01009KT 04/M02 A3034 RMK A01 T00401017  RH  066%=      5-min Rain = 0
KCR1 070648Z 01009KT 04/M02 A3034 RMK A01 T00401017  RH  066%=      5-min Rain = 0
KCR1 070649Z 01009KT 04/M02 A3034 RMK A01 T00401017  RH  066%=      5-min Rain = 0
KCR1 070650Z 01008KT 04/M02 A3034 RMK A01 T00391018  RH  066%=      5-min Rain = 0
KCR1 070651Z 02008KT 04/M02 A3034 RMK A01 T00401017  RH  066%=      5-min Rain = 0
KCR1 070652Z 01008KT 04/M02 A3034 RMK A01 T00401017  RH  067%=      5-min Rain = 0
KCR1 070653Z 01009KT 04/M02 A3034 RMK A01 T00401017  RH  067%=      5-min Rain = 0
KCR1 070654Z 01009KT 04/M02 A3034 RMK A01 T00391017  RH  066%=      5-min Rain = 0
KCR1 070655Z 01008KT 04/M02 A3034 RMK A01 T00401017  RH  067%=      5-min Rain = 0
KCR1 070656Z 01008KT 04/M02 A3034 RMK A01 T00391016  RH  067%=      5-min Rain = 0
KCR1 070657Z 01008KT 04/M02 A3034 RMK A01 T00391016  RH  067%=      5-min Rain = 0
KCR1 070658Z 01009KT 04/M02 A3034 RMK A01 T00401017  RH  067%=      5-min Rain = 0
KCR1 070659Z 01010KT 04/M02 A3034 RMK A01 T00391017  RH  067%=      5-min Rain = 0
KCR1 070700Z 01009KT 04/M02 A3034 RMK A01 T00391017  RH  067%=      5-min Rain = 0
KCR1 070701Z 01009KT 04/M02 A3034 RMK A01 T00391017  RH  067%=      5-min Rain = 0
KCR1 070702Z 01008KT 04/M02 A3034 RMK A01 T00391018  RH  067%=      5-min Rain = 0
KCR1 070703Z 01009KT 04/M02 A3034 RMK A01 T00391017  RH  067%=      5-min Rain = 0
KCR1 070704Z 01010KT 04/M02 A3034 RMK A01 T00391018  RH  067%=      5-min Rain = 0
KCR1 070705Z 01010KT 04/M02 A3034 RMK A01 T00391017  RH  067%=      5-min Rain = 0
KCR1 070706Z 02009KT 04/M02 A3034 RMK A01 T00381018  RH  067%=      5-min Rain = 0
KCR1 070707Z 01009KT 04/M02 A3034 RMK A01 T00381018  RH  067%=      5-min Rain = 0
KCR1 070708Z 01009KT 04/M02 A3034 RMK A01 T00381017  RH  067%=      5-min Rain = 0
KCR1 070709Z 02009KT 04/M02 A3034 RMK A01 T00381017  RH  067%=      5-min Rain = 0
KCR1 070710Z 03011KT 04/M02 A3034 RMK A01 T00381017  RH  067%=      5-min Rain = 0
KCR1 070711Z 02009KT 04/M02 A3034 RMK A01 T00381018  RH  067%=      5-min Rain = 0
KCR1 070712Z 02009KT 04/M02 A3034 RMK A01 T00381017  RH  067%=      5-min Rain = 0
KCR1 070713Z 01010KT 04/M02 A3034 RMK A01 T00381017  RH  067%=      5-min Rain = 0
KCR1 070714Z 02010KT 04/M02 A3034 RMK A01 T00381018  RH  067%=      5-min Rain = 0
KCR1 070715Z 02010KT 04/M02 A3034 RMK A01 T00381018  RH  067%=      5-min Rain = 0
KCR1 070716Z 02009KT 04/M02 A3034 RMK A01 T00381018  RH  067%=      5-min Rain = 0
KCR1 070717Z 01008KT 04/M02 A3034 RMK A01 T00381018  RH  067%=      5-min Rain = 0
KCR1 070718Z 01009KT 04/M02 A3034 RMK A01 T00381017  RH  067%=      5-min Rain = 0
KCR1 070719Z 01009KT 04/M02 A3034 RMK A01 T00381018  RH  067%=      5-min Rain = 0
KCR1 070720Z 01009KT 04/M02 A3034 RMK A01 T00381017  RH  067%=      5-min Rain = 0
KCR1 070721Z 01009KT 04/M02 A3034 RMK A01 T00381018  RH  067%=      5-min Rain = 0
KCR1 070722Z 01009KT 04/M02 A3034 RMK A01 T00381018  RH  067%=      5-min Rain = 0
KCR1 070723Z 01008KT 04/M02 A3034 RMK A01 T00381018  RH  067%=      5-min Rain = 0
KCR1 070724Z 00009KT 04/M02 A3034 RMK A01 T00381017  RH  067%=      5-min Rain = 0
KCR1 070725Z 01009KT 04/M02 A3034 RMK A01 T00381018  RH  067%=      5-min Rain = 0
KCR1 070726Z 01009KT 04/M02 A3034 RMK A01 T00381018  RH  067%=      5-min Rain = 0
KCR1 070727Z 01009KT 04/M02 A3034 RMK A01 T00381018  RH  067%=      5-min Rain = 0
KCR1 070728Z 01009KT 04/M02 A3034 RMK A01 T00381018  RH  067%=      5-min Rain = 0
KCR1 070729Z 01009KT 04/M02 A3034 RMK A01 T00381018  RH  067%=      5-min Rain = 0
KCR1 070730Z 01010KT 04/M02 A3034 RMK A01 T00381017  RH  067%=      5-min Rain = 0
KCR1 070731Z 01009KT 04/M02 A3034 RMK A01 T00381018  RH  067%=      5-min Rain = 0
KCR1 070732Z 02010KT 04/M02 A3034 RMK A01 T00381018  RH  067%=      5-min Rain = 0
KCR1 070733Z 01009KT 04/M02 A3034 RMK A01 T00381018  RH  067%=      5-min Rain = 0
KCR1 070734Z 01010KT 04/M02 A3034 RMK A01 T00381017  RH  067%=      5-min Rain = 0
KCR1 070735Z 01009KT 04/M02 A3034 RMK A01 T00381018  RH  067%=      5-min Rain = 0
KCR1 070736Z 01009KT 04/M02 A3034 RMK A01 T00381018  RH  067%=      5-min Rain = 0
KCR1 070737Z 01008KT 04/M02 A3034 RMK A01 T00381018  RH  067%=      5-min Rain = 0
KCR1 070738Z 01008KT 04/M02 A3034 RMK A01 T00381018  RH  067%=      5-min Rain = 0
KCR1 070739Z 01009KT 04/M02 A3034 RMK A01 T00381017  RH  067%=      5-min Rain = 0
KCR1 070740Z 01007KT 04/M02 A3034 RMK A01 T00381017  RH  067%=      5-min Rain = 0
KCR1 070741Z 01007KT 04/M02 A3034 RMK A01 T00381017  RH  068%=      5-min Rain = 0
KCR1 070742Z 01007KT 04/M02 A3034 RMK A01 T00371017  RH  068%=      5-min Rain = 0
KCR1 070743Z 00007KT 04/M02 A3034 RMK A01 T00381017  RH  068%=      5-min Rain = 0
KCR1 070744Z 00007KT 04/M02 A3034 RMK A01 T00371017  RH  068%=      5-min Rain = 0
KCR1 070745Z 00007KT 04/M02 A3034 RMK A01 T00381017  RH  068%=      5-min Rain = 0
KCR1 070746Z 01007KT 04/M02 A3034 RMK A01 T00381016  RH  068%=      5-min Rain = 0
KCR1 070747Z 00008KT 04/M02 A3034 RMK A01 T00381017  RH  068%=      5-min Rain = 0
KCR1 070748Z 00007KT 04/M02 A3034 RMK A01 T00381017  RH  067%=      5-min Rain = 0
KCR1 070749Z 01006KT 04/M02 A3034 RMK A01 T00381017  RH  068%=      5-min Rain = 0
KCR1 070750Z 00009KT 04/M02 A3034 RMK A01 T00381017  RH  068%=      5-min Rain = 0
KCR1 070751Z 01008KT 04/M02 A3034 RMK A01 T00381017  RH  067%=      5-min Rain = 0
KCR1 070752Z 01008KT 04/M02 A3034 RMK A01 T00371017  RH  068%=      5-min Rain = 0
KCR1 070753Z 01008KT 04/M02 A3034 RMK A01 T00371017  RH  068%=      5-min Rain = 0
KCR1 070754Z 01009KT 04/M02 A3034 RMK A01 T00371017  RH  068%=      5-min Rain = 0
KCR1 070755Z 01009KT 04/M02 A3034 RMK A01 T00371017  RH  068%=      5-min Rain = 0
KCR1 070756Z 02008KT 04/M02 A3034 RMK A01 T00371017  RH  068%=      5-min Rain = 0
KCR1 070757Z 02008KT 04/M02 A3034 RMK A01 T00371017  RH  068%=      5-min Rain = 0
KCR1 070758Z 02008KT 04/M02 A3034 RMK A01 T00371016  RH  068%=      5-min Rain = 0
KCR1 070759Z 01009KT 04/M02 A3034 RMK A01 T00371017  RH  068%=      5-min Rain = 0
KCR1 070800Z 01009KT 04/M02 A3034 RMK A01 T00371017  RH  068%=      5-min Rain = 0
KCR1 070801Z 02010KT 04/M02 A3034 RMK A01 T00371017  RH  068%=      5-min Rain = 0
KCR1 070802Z 01009KT 04/M02 A3034 RMK A01 T00361017  RH  068%=      5-min Rain = 0
KCR1 070803Z 01009KT 04/M02 A3034 RMK A01 T00361017  RH  068%=      5-min Rain = 0
KCR1 070804Z 01009KT 04/M02 A3034 RMK A01 T00361017  RH  068%=      5-min Rain = 0
KCR1 070805Z 01010KT 04/M02 A3034 RMK A01 T00361017  RH  068%=      5-min Rain = 0
KCR1 070806Z 01009KT 04/M02 A3034 RMK A01 T00361017  RH  068%=      5-min Rain = 0
KCR1 070807Z 01010KT 04/M02 A3034 RMK A01 T00361017  RH  068%=      5-min Rain = 0
KCR1 070808Z 02010KT 04/M02 A3034 RMK A01 T00361017  RH  068%=      5-min Rain = 0
KCR1 070809Z 02009KT 04/M02 A3034 RMK A01 T00361017  RH  068%=      5-min Rain = 0
KCR1 070810Z 02009KT 04/M02 A3034 RMK A01 T00361017  RH  069%=      5-min Rain = 0
KCR1 070811Z 01009KT 04/M02 A3034 RMK A01 T00361016  RH  069%=      5-min Rain = 0
KCR1 070812Z 02010KT 04/M02 A3034 RMK A01 T00361016  RH  069%=      5-min Rain = 0
KCR1 070813Z 01011KT 04/M02 A3034 RMK A01 T00361016  RH  069%=      5-min Rain = 0
KCR1 070814Z 02010KT 04/M02 A3034 RMK A01 T00361016  RH  069%=      5-min Rain = 0
KCR1 070815Z 03009KT 04/M02 A3034 RMK A01 T00351017  RH  069%=      5-min Rain = 0
KCR1 070816Z 02010KT 04/M02 A3034 RMK A01 T00351017  RH  069%=      5-min Rain = 0
KCR1 070817Z 02009KT 04/M02 A3035 RMK A01 T00361017  RH  069%=      5-min Rain = 0
KCR1 070818Z 02009KT 04/M02 A3035 RMK A01 T00351017  RH  069%=      5-min Rain = 0
KCR1 070819Z 02009KT 04/M02 A3035 RMK A01 T00351017  RH  069%=      5-min Rain = 0
KCR1 070820Z 02009KT 04/M02 A3035 RMK A01 T00361016  RH  069%=      5-min Rain = 0
KCR1 070821Z 02009KT 04/M02 A3035 RMK A01 T00361016  RH  069%=      5-min Rain = 0
KCR1 070822Z 01008KT 04/M02 A3035 RMK A01 T00351016  RH  069%=      5-min Rain = 0
KCR1 070823Z 01007KT 04/M02 A3035 RMK A01 T00351016  RH  069%=      5-min Rain = 0
KCR1 070824Z 02007KT 04/M02 A3034 RMK A01 T00351016  RH  069%=      5-min Rain = 0
KCR1 070825Z 02009KT 04/M02 A3034 RMK A01 T00351016  RH  069%=      5-min Rain = 0
KCR1 070826Z 02009KT 04/M02 A3034 RMK A01 T00351016  RH  069%=      5-min Rain = 0
KCR1 070827Z 01009KT 04/M02 A3034 RMK A01 T00351017  RH  069%=      5-min Rain = 0
KCR1 070828Z 01009KT 04/M02 A3034 RMK A01 T00351017  RH  069%=      5-min Rain = 0
KCR1 070829Z 02010KT 04/M02 A3034 RMK A01 T00351016  RH  069%=      5-min Rain = 0
KCR1 070830Z 02011KT 04/M02 A3034 RMK A01 T00351017  RH  069%=      5-min Rain = 0
KCR1 070831Z 01009KT 04/M02 A3034 RMK A01 T00351017  RH  069%=      5-min Rain = 0
KCR1 070832Z 02008KT 04/M02 A3034 RMK A01 T00351016  RH  069%=      5-min Rain = 0
KCR1 070833Z 01010KT 04/M02 A3034 RMK A01 T00351016  RH  069%=      5-min Rain = 0
KCR1 070834Z 01008KT 04/M02 A3034 RMK A01 T00361016  RH  069%=      5-min Rain = 0
KCR1 070835Z 01008KT 04/M02 A3034 RMK A01 T00351016  RH  069%=      5-min Rain = 0
KCR1 070836Z 01007KT 04/M02 A3034 RMK A01 T00361015  RH  069%=      5-min Rain = 0
KCR1 070837Z 00007KT 04/M02 A3034 RMK A01 T00351016  RH  069%=      5-min Rain = 0
KCR1 070838Z 01007KT 04/M02 A3035 RMK A01 T00351016  RH  069%=      5-min Rain = 0
KCR1 070839Z 00007KT 04/M02 A3035 RMK A01 T00351016  RH  069%=      5-min Rain = 0
KCR1 070840Z 01009KT 04/M02 A3035 RMK A01 T00351016  RH  069%=      5-min Rain = 0
KCR1 070841Z 01009KT 04/M02 A3035 RMK A01 T00351016  RH  069%=      5-min Rain = 0
KCR1 070842Z 01009KT 04/M02 A3035 RMK A01 T00351016  RH  069%=      5-min Rain = 0
KCR1 070843Z 00007KT 04/M02 A3035 RMK A01 T00351016  RH  069%=      5-min Rain = 0
KCR1 070844Z 00007KT 04/M02 A3035 RMK A01 T00351016  RH  069%=      5-min Rain = 0
KCR1 070845Z 01006KT 04/M02 A3035 RMK A01 T00351015  RH  069%=      5-min Rain = 0
KCR1 070846Z 36008KT 04/M02 A3035 RMK A01 T00351015  RH  070%=      5-min Rain = 0
KCR1 070847Z 00008KT 04/M02 A3035 RMK A01 T00351015  RH  069%=      5-min Rain = 0
KCR1 070848Z 00008KT 04/M02 A3035 RMK A01 T00351015  RH  069%=      5-min Rain = 0
KCR1 070849Z 00009KT 04/M02 A3035 RMK A01 T00351015  RH  069%=      5-min Rain = 0
KCR1 070850Z 01010KT 04/M02 A3035 RMK A01 T00351016  RH  069%=      5-min Rain = 0
KCR1 070851Z 00009KT 04/M02 A3035 RMK A01 T00351016  RH  069%=      5-min Rain = 0
KCR1 070852Z 00009KT 04/M02 A3035 RMK A01 T00351016  RH  070%=      5-min Rain = 0
KCR1 070853Z 00009KT 03/M02 A3035 RMK A01 T00341016  RH  070%=      5-min Rain = 0
KCR1 070854Z 00008KT 04/M02 A3035 RMK A01 T00351015  RH  070%=      5-min Rain = 0
KCR1 070855Z 00010KT 04/M02 A3035 RMK A01 T00351015  RH  070%=      5-min Rain = 0
KCR1 070856Z 01010KT 04/M02 A3035 RMK A01 T00351015  RH  070%=      5-min Rain = 0
KCR1 070857Z 01010KT 03/M02 A3035 RMK A01 T00341015  RH  070%=      5-min Rain = 0
KCR1 070858Z 01009KT 03/M01 A3035 RMK A01 T00341014  RH  070%=      5-min Rain = 0
KCR1 070859Z 01009KT 03/M01 A3035 RMK A01 T00341014  RH  071%=      5-min Rain = 0
KCR1 070900Z 01010KT 04/M01 A3035 RMK A01 T00351014  RH  071%=      5-min Rain = 0
KCR1 070901Z 02009KT 03/M01 A3035 RMK A01 T00341014  RH  070%=      5-min Rain = 0
KCR1 070902Z 02010KT 03/M01 A3035 RMK A01 T00341014  RH  071%=      5-min Rain = 0
KCR1 070903Z 02010KT 03/M02 A3035 RMK A01 T00341015  RH  071%=      5-min Rain = 0
KCR1 070904Z 02010KT 03/M01 A3035 RMK A01 T00341014  RH  071%=      5-min Rain = 0
KCR1 070905Z 02008KT 03/M01 A3035 RMK A01 T00341014  RH  071%=      5-min Rain = 0
KCR1 070906Z 02008KT 03/M01 A3035 RMK A01 T00341013  RH  071%=      5-min Rain = 0
KCR1 070907Z 02010KT 03/M01 A3035 RMK A01 T00341014  RH  071%=      5-min Rain = 0
KCR1 070908Z 02009KT 03/M02 A3035 RMK A01 T00341015  RH  071%=      5-min Rain = 0
KCR1 070909Z 02009KT 03/M01 A3034 RMK A01 T00341014  RH  071%=      5-min Rain = 0
KCR1 070910Z 02009KT 03/M01 A3034 RMK A01 T00341014  RH  071%=      5-min Rain = 0
KCR1 070911Z 02010KT 03/M01 A3034 RMK A01 T00341014  RH  071%=      5-min Rain = 0
KCR1 070912Z 02009KT 03/M01 A3034 RMK A01 T00341014  RH  071%=      5-min Rain = 0
KCR1 070913Z 02009KT 03/M01 A3034 RMK A01 T00341014  RH  071%=      5-min Rain = 0
KCR1 070914Z 02010KT 03/M01 A3034 RMK A01 T00341014  RH  071%=      5-min Rain = 0
KCR1 070915Z 01009KT 03/M01 A3034 RMK A01 T00341014  RH  071%=      5-min Rain = 0
KCR1 070916Z 01009KT 03/M01 A3034 RMK A01 T00341014  RH  071%=      5-min Rain = 0
KCR1 070917Z 02008KT 03/M01 A3034 RMK A01 T00341014  RH  071%=      5-min Rain = 0
KCR1 070918Z 01007KT 03/M01 A3034 RMK A01 T00331014  RH  071%=      5-min Rain = 0
KCR1 070919Z 01010KT 03/M01 A3034 RMK A01 T00331014  RH  071%=      5-min Rain = 0
KCR1 070920Z 01009KT 03/M01 A3034 RMK A01 T00331014  RH  071%=      5-min Rain = 0
KCR1 070921Z 01008KT 03/M01 A3034 RMK A01 T00341014  RH  071%=      5-min Rain = 0
KCR1 070922Z 02009KT 03/M01 A3034 RMK A01 T00341013  RH  071%=      5-min Rain = 0
KCR1 070923Z 02009KT 03/M01 A3034 RMK A01 T00341013  RH  071%=      5-min Rain = 0
KCR1 070924Z 01010KT 03/M01 A3034 RMK A01 T00341013  RH  071%=      5-min Rain = 0
KCR1 070925Z 02009KT 03/M01 A3034 RMK A01 T00341013  RH  071%=      5-min Rain = 0
KCR1 070926Z 02009KT 03/M01 A3034 RMK A01 T00341013  RH  071%=      5-min Rain = 0
KCR1 070927Z 02009KT 03/M01 A3034 RMK A01 T00341013  RH  071%=      5-min Rain = 0
KCR1 070928Z 02008KT 03/M01 A3034 RMK A01 T00341012  RH  072%=      5-min Rain = 0
KCR1 070929Z 02009KT 03/M01 A3034 RMK A01 T00341012  RH  072%=      5-min Rain = 0
KCR1 070930Z 02009KT 03/M01 A3034 RMK A01 T00341012  RH  072%=      5-min Rain = 0
KCR1 070931Z 02009KT 03/M01 A3034 RMK A01 T00331012  RH  072%=      5-min Rain = 0
KCR1 070932Z 02009KT 03/M01 A3034 RMK A01 T00331011  RH  073%=      5-min Rain = 0
KCR1 070933Z 02009KT 03/M01 A3034 RMK A01 T00331011  RH  073%=      5-min Rain = 0
KCR1 070934Z 02008KT 03/M01 A3034 RMK A01 T00331010  RH  073%=      5-min Rain = 0
KCR1 070935Z 02009KT 03/M01 A3034 RMK A01 T00331010  RH  073%=      5-min Rain = 0
KCR1 070936Z 02010KT 03/M01 A3034 RMK A01 T00331010  RH  074%=      5-min Rain = 0
KCR1 070937Z 02009KT 03/M01 A3034 RMK A01 T00331009  RH  074%=      5-min Rain = 0
KCR1 070938Z 02009KT 03/M01 A3034 RMK A01 T00331008  RH  074%=      5-min Rain = 0
KCR1 070939Z 02009KT 03/M01 A3034 RMK A01 T00331008  RH  074%=      5-min Rain = 0
KCR1 070940Z 02010KT 03/M01 A3034 RMK A01 T00331008  RH  075%=      5-min Rain = 0
KCR1 070941Z 02011KT 03/M01 A3034 RMK A01 T00331008  RH  075%=      5-min Rain = 0
KCR1 070942Z 02009KT 03/M01 A3035 RMK A01 T00321008  RH  075%=      5-min Rain = 0
KCR1 070943Z 01008KT 03/M01 A3035 RMK A01 T00321008  RH  075%=      5-min Rain = 0
KCR1 070944Z 02010KT 03/M01 A3035 RMK A01 T00321008  RH  075%=      5-min Rain = 0
KCR1 070945Z 01010KT 03/M01 A3035 RMK A01 T00321008  RH  075%=      5-min Rain = 0
KCR1 070946Z 01010KT 03/M01 A3035 RMK A01 T00321008  RH  075%=      5-min Rain = 0
KCR1 070947Z 01009KT 03/M01 A3035 RMK A01 T00321008  RH  075%=      5-min Rain = 0
KCR1 070948Z 02008KT 03/M01 A3035 RMK A01 T00321008  RH  075%=      5-min Rain = 0
KCR1 070949Z 02008KT 03/M01 A3034 RMK A01 T00321008  RH  075%=      5-min Rain = 0
KCR1 070950Z 02007KT 03/M01 A3034 RMK A01 T00321007  RH  075%=      5-min Rain = 0
KCR1 070951Z 01009KT 03/M01 A3035 RMK A01 T00331007  RH  075%=      5-min Rain = 0
KCR1 070952Z 02009KT 03/M01 A3035 RMK A01 T00321008  RH  075%=      5-min Rain = 0
KCR1 070953Z 02009KT 03/M01 A3035 RMK A01 T00331008  RH  075%=      5-min Rain = 0
KCR1 070954Z 01007KT 03/M01 A3035 RMK A01 T00321008  RH  075%=      5-min Rain = 0
KCR1 070955Z 01007KT 03/M01 A3035 RMK A01 T00321008  RH  075%=      5-min Rain = 0
KCR1 070956Z 01009KT 03/M01 A3035 RMK A01 T00321007  RH  075%=      5-min Rain = 0
KCR1 070957Z 02010KT 03/M01 A3035 RMK A01 T00321008  RH  075%=      5-min Rain = 0
KCR1 070958Z 01010KT 03/M01 A3035 RMK A01 T00321008  RH  075%=      5-min Rain = 0
KCR1 070959Z 01009KT 03/M01 A3035 RMK A01 T00321008  RH  075%=      5-min Rain = 0
KCR1 071000Z 01009KT 03/M01 A3035 RMK A01 T00321007  RH  075%=      5-min Rain = 0
KCR1 071001Z 01009KT 03/M01 A3034 RMK A01 T00321007  RH  076%=      5-min Rain = 0
KCR1 071002Z 01009KT 03/M01 A3034 RMK A01 T00321007  RH  076%=      5-min Rain = 0
KCR1 071003Z 01009KT 03/M01 A3034 RMK A01 T00321006  RH  076%=      5-min Rain = 0
KCR1 071004Z 01010KT 03/M01 A3034 RMK A01 T00321006  RH  076%=      5-min Rain = 0
KCR1 071005Z 00009KT 03/M01 A3034 RMK A01 T00321006  RH  076%=      5-min Rain = 0
KCR1 071006Z 00009KT 03/M01 A3034 RMK A01 T00321006  RH  076%=      5-min Rain = 0
KCR1 071007Z 01010KT 03/M01 A3034 RMK A01 T00321006  RH  076%=      5-min Rain = 0
KCR1 071008Z 01009KT 03/M01 A3034 RMK A01 T00311007  RH  076%=      5-min Rain = 0
KCR1 071009Z 00008KT 03/M01 A3034 RMK A01 T00311007  RH  076%=      5-min Rain = 0
KCR1 071010Z 00009KT 03/M01 A3034 RMK A01 T00311006  RH  076%=      5-min Rain = 0
KCR1 071011Z 01009KT 03/M01 A3034 RMK A01 T00311006  RH  077%=      5-min Rain = 0
KCR1 071012Z 00008KT 03/M01 A3034 RMK A01 T00311006  RH  077%=      5-min Rain = 0
KCR1 071013Z 36009KT 03/M01 A3034 RMK A01 T00311005  RH  077%=      5-min Rain = 0
KCR1 071014Z 36008KT 03/M01 A3034 RMK A01 T00311005  RH  077%=      5-min Rain = 0
KCR1 071015Z 00008KT 03/M01 A3034 RMK A01 T00311005  RH  077%=      5-min Rain = 0
KCR1 071016Z 36008KT 03/M01 A3035 RMK A01 T00311005  RH  077%=      5-min Rain = 0
KCR1 071017Z 01008KT 03/M01 A3035 RMK A01 T00311005  RH  077%=      5-min Rain = 0
KCR1 071018Z 00008KT 03/M01 A3035 RMK A01 T00311005  RH  077%=      5-min Rain = 0
KCR1 071019Z 36009KT 03/M01 A3035 RMK A01 T00301005  RH  077%=      5-min Rain = 0
KCR1 071020Z 36009KT 03/M01 A3035 RMK A01 T00301005  RH  078%=      5-min Rain = 0
KCR1 071021Z 35009KT 03/M00 A3035 RMK A01 T00301004  RH  078%=      5-min Rain = 0
KCR1 071022Z 35009KT 03/M00 A3035 RMK A01 T00301004  RH  078%=      5-min Rain = 0
KCR1 071023Z 36009KT 03/M00 A3035 RMK A01 T00301004  RH  078%=      5-min Rain = 0
KCR1 071024Z 36009KT 03/M00 A3035 RMK A01 T00301004  RH  078%=      5-min Rain = 0
KCR1 071025Z 35009KT 03/M00 A3035 RMK A01 T00301003  RH  079%=      5-min Rain = 0
KCR1 071026Z 35008KT 03/M00 A3035 RMK A01 T00301003  RH  079%=      5-min Rain = 0
KCR1 071027Z 35010KT 03/M00 A3035 RMK A01 T00301003  RH  079%=      5-min Rain = 0
KCR1 071028Z 35010KT 03/M00 A3035 RMK A01 T00301003  RH  079%=      5-min Rain = 0
KCR1 071029Z 35010KT 03/M00 A3035 RMK A01 T00291003  RH  079%=      5-min Rain = 0
KCR1 071030Z 36011KT 03/M00 A3035 RMK A01 T00301002  RH  079%=      5-min Rain = 0
KCR1 071031Z 00011KT 03/M00 A3035 RMK A01 T00291003  RH  080%=      5-min Rain = 0
KCR1 071032Z 36010KT 03/M00 A3035 RMK A01 T00291002  RH  080%=      5-min Rain = 0
KCR1 071033Z 36010KT 03/M00 A3035 RMK A01 T00291002  RH  080%=      5-min Rain = 0
KCR1 071034Z 36011KT 03/M00 A3035 RMK A01 T00291002  RH  080%=      5-min Rain = 0
KCR1 071035Z 00011KT 03/M00 A3035 RMK A01 T00291002  RH  080%=      5-min Rain = 0
KCR1 071036Z 36009KT 03/M00 A3035 RMK A01 T00291002  RH  080%=      5-min Rain = 0
KCR1 071037Z 00010KT 03/M00 A3035 RMK A01 T00291002  RH  080%=      5-min Rain = 0
KCR1 071038Z 36009KT 03/M00 A3035 RMK A01 T00291002  RH  080%=      5-min Rain = 0
KCR1 071039Z 35010KT 03/M00 A3035 RMK A01 T00291002  RH  080%=      5-min Rain = 0
KCR1 071040Z 00009KT 03/M00 A3035 RMK A01 T00291002  RH  080%=      5-min Rain = 0
KCR1 071041Z 00011KT 03/M00 A3035 RMK A01 T00291002  RH  080%=      5-min Rain = 0
KCR1 071042Z 36009KT 03/M00 A3035 RMK A01 T00291002  RH  080%=      5-min Rain = 0
KCR1 071043Z 36010KT 03/M00 A3035 RMK A01 T00291001  RH  081%=      5-min Rain = 0
KCR1 071044Z 00011KT 03/M00 A3035 RMK A01 T00291001  RH  081%=      5-min Rain = 0
KCR1 071045Z 01010KT 03/M00 A3035 RMK A01 T00281001  RH  081%=      5-min Rain = 0
KCR1 071046Z 01010KT 03/M00 A3035 RMK A01 T00281001  RH  081%=      5-min Rain = 0
KCR1 071047Z 01009KT 03/M00 A3035 RMK A01 T00281002  RH  081%=      5-min Rain = 0
KCR1 071048Z 01008KT 03/M00 A3036 RMK A01 T00281002  RH  081%=      5-min Rain = 0
KCR1 071049Z 02008KT 03/M00 A3036 RMK A01 T00281002  RH  081%=      5-min Rain = 0
KCR1 071050Z 02009KT 03/M00 A3035 RMK A01 T00281002  RH  081%=      5-min Rain = 0
KCR1 071051Z 01008KT 03/M00 A3035 RMK A01 T00281002  RH  081%=      5-min Rain = 0
KCR1 071052Z 01009KT 03/M00 A3035 RMK A01 T00281002  RH  081%=      5-min Rain = 0
KCR1 071053Z 01009KT 03/M00 A3035 RMK A01 T00281002  RH  081%=      5-min Rain = 0
KCR1 071054Z 02008KT 03/M00 A3036 RMK A01 T00281002  RH  081%=      5-min Rain = 0
KCR1 071055Z 02010KT 03/M00 A3035 RMK A01 T00281002  RH  081%=      5-min Rain = 0
KCR1 071056Z 02010KT 03/M00 A3035 RMK A01 T00281002  RH  081%=      5-min Rain = 0
KCR1 071057Z 01010KT 03/M00 A3035 RMK A01 T00281002  RH  081%=      5-min Rain = 0
KCR1 071058Z 01009KT 03/M00 A3035 RMK A01 T00281002  RH  081%=      5-min Rain = 0
KCR1 071059Z 01009KT 03/M00 A3036 RMK A01 T00281002  RH  081%=      5-min Rain = 0
KCR1 071100Z 02007KT 03/M00 A3036 RMK A01 T00281002  RH  081%=      5-min Rain = 0
KCR1 071101Z 03009KT 03/M00 A3036 RMK A01 T00281002  RH  081%=      5-min Rain = 0
KCR1 071102Z 02009KT 03/M00 A3035 RMK A01 T00281002  RH  081%=      5-min Rain = 0
KCR1 071103Z 02010KT 03/M00 A3035 RMK A01 T00281002  RH  081%=      5-min Rain = 0
KCR1 071104Z 02010KT 03/M00 A3035 RMK A01 T00281002  RH  081%=      5-min Rain = 0
KCR1 071105Z 02008KT 03/M00 A3036 RMK A01 T00271001  RH  081%=      5-min Rain = 0
KCR1 071106Z 02009KT 03/M00 A3036 RMK A01 T00271001  RH  082%=      5-min Rain = 0
KCR1 071107Z 02009KT 03/00 A3036 RMK A01 T002700-0  RH  082%=      5-min Rain = 0
KCR1 071108Z 02009KT 03/00 A3036 RMK A01 T002700-0  RH  082%=      5-min Rain = 0
KCR1 071109Z 02009KT 03/M00 A3036 RMK A01 T00271001  RH  082%=      5-min Rain = 0
KCR1 071110Z 02009KT 03/00 A3036 RMK A01 T002700-0  RH  082%=      5-min Rain = 0
KCR1 071111Z 02008KT 03/M00 A3036 RMK A01 T00271001  RH  082%=      5-min Rain = 0
KCR1 071112Z 02008KT 03/00 A3036 RMK A01 T002700-0  RH  082%=      5-min Rain = 0
KCR1 071113Z 01007KT 03/M00 A3036 RMK A01 T00271001  RH  082%=      5-min Rain = 0
KCR1 071114Z 01007KT 03/M00 A3036 RMK A01 T00271001  RH  082%=      5-min Rain = 0
KCR1 071115Z 01007KT 03/00 A3036 RMK A01 T002700-0  RH  082%=      5-min Rain = 0
KCR1 071116Z 02006KT 03/M00 A3036 RMK A01 T00271001  RH  082%=      5-min Rain = 0
KCR1 071117Z 02007KT 03/00 A3036 RMK A01 T002700-0  RH  082%=      5-min Rain = 0
KCR1 071118Z 02006KT 03/00 A3037 RMK A01 T002700-0  RH  082%=      5-min Rain = 0
KCR1 071119Z 02007KT 03/M00 A3037 RMK A01 T00271001  RH  082%=      5-min Rain = 0
KCR1 071120Z 02007KT 03/M00 A3037 RMK A01 T00271001  RH  082%=      5-min Rain = 0
KCR1 071121Z 02006KT 03/M00 A3036 RMK A01 T00271001  RH  082%=      5-min Rain = 0
KCR1 071122Z 02008KT 03/M00 A3036 RMK A01 T00271001  RH  082%=      5-min Rain = 0
KCR1 071123Z 02008KT 03/M00 A3036 RMK A01 T00271001  RH  082%=      5-min Rain = 0
KCR1 071124Z 02006KT 03/M00 A3036 RMK A01 T00271001  RH  082%=      5-min Rain = 0
KCR1 071125Z 02005KT 03/00 A3036 RMK A01 T002700-0  RH  082%=      5-min Rain = 0
KCR1 071126Z 03006KT 03/00 A3037 RMK A01 T002700-0  RH  082%=      5-min Rain = 0
KCR1 071127Z 02007KT 03/00 A3037 RMK A01 T002700-0  RH  082%=      5-min Rain = 0
KCR1 071128Z 03007KT 03/00 A3037 RMK A01 T002700-0  RH  082%=      5-min Rain = 0
KCR1 071129Z 02007KT 03/00 A3037 RMK A01 T002700-0  RH  082%=      5-min Rain = 0
KCR1 071130Z 02008KT 03/00 A3037 RMK A01 T002700-0  RH  082%=      5-min Rain = 0
KCR1 071131Z 02007KT 03/00 A3037 RMK A01 T00270000  RH  083%=      5-min Rain = 0
KCR1 071132Z 02007KT 03/00 A3037 RMK A01 T00270000  RH  083%=      5-min Rain = 0
KCR1 071133Z 02008KT 03/00 A3036 RMK A01 T00270000  RH  083%=      5-min Rain = 0
KCR1 071134Z 02009KT 03/00 A3036 RMK A01 T00270000  RH  083%=      5-min Rain = 0
KCR1 071135Z 02008KT 03/00 A3036 RMK A01 T00270000  RH  083%=      5-min Rain = 0
KCR1 071136Z 02009KT 03/00 A3036 RMK A01 T00270000  RH  083%=      5-min Rain = 0
KCR1 071137Z 02009KT 03/00 A3037 RMK A01 T002700-0  RH  083%=      5-min Rain = 0
KCR1 071138Z 02008KT 03/00 A3036 RMK A01 T00260000  RH  083%=      5-min Rain = 0
KCR1 071139Z 03009KT 03/00 A3036 RMK A01 T00260000  RH  083%=      5-min Rain = 0
KCR1 071140Z 03009KT 03/00 A3036 RMK A01 T00260000  RH  083%=      5-min Rain = 0
KCR1 071141Z 03009KT 03/00 A3036 RMK A01 T00260000  RH  083%=      5-min Rain = 0
KCR1 071142Z 03008KT 03/00 A3036 RMK A01 T00260001  RH  083%=      5-min Rain = 0
KCR1 071143Z 03007KT 03/00 A3036 RMK A01 T00260001  RH  084%=      5-min Rain = 0
KCR1 071144Z 03008KT 03/00 A3036 RMK A01 T00250001  RH  084%=      5-min Rain = 0
KCR1 071145Z 03008KT 03/00 A3036 RMK A01 T00250001  RH  084%=      5-min Rain = 0
KCR1 071146Z 03007KT 03/00 A3036 RMK A01 T00250001  RH  084%=      5-min Rain = 0
KCR1 071147Z 03006KT 03/00 A3036 RMK A01 T00250001  RH  084%=      5-min Rain = 0
KCR1 071148Z 04007KT 03/00 A3036 RMK A01 T00250001  RH  084%=      5-min Rain = 0
KCR1 071149Z 03007KT 03/00 A3036 RMK A01 T00250001  RH  084%=      5-min Rain = 0
KCR1 071150Z 03008KT 03/00 A3036 RMK A01 T00250002  RH  084%=      5-min Rain = 0
KCR1 071151Z 04008KT 03/00 A3036 RMK A01 T00250002  RH  085%=      5-min Rain = 0
KCR1 071152Z 04009KT 03/00 A3036 RMK A01 T00250002  RH  085%=      5-min Rain = 0
KCR1 071153Z 03009KT 03/00 A3036 RMK A01 T00250003  RH  085%=      5-min Rain = 0
KCR1 071154Z 03008KT 03/00 A3036 RMK A01 T00250003  RH  085%=      5-min Rain = 0
KCR1 071155Z 03008KT 02/00 A3036 RMK A01 T00240002  RH  085%=      5-min Rain = 0
KCR1 071156Z 03008KT 02/00 A3036 RMK A01 T00240003  RH  086%=      5-min Rain = 0
KCR1 071157Z 03008KT 02/00 A3036 RMK A01 T00240003  RH  086%=      5-min Rain = 0
KCR1 071158Z 03008KT 02/00 A3036 RMK A01 T00240003  RH  086%=      5-min Rain = 0
KCR1 071159Z 03008KT 02/00 A3036 RMK A01 T00240003  RH  086%=      5-min Rain = 0
KCR1 071200Z 03009KT 02/00 A3036 RMK A01 T00240003  RH  086%=      5-min Rain = 0
KCR1 071201Z 03009KT 02/00 A3036 RMK A01 T00240003  RH  086%=      5-min Rain = 0
KCR1 071202Z 04009KT 02/00 A3036 RMK A01 T00240003  RH  086%=      5-min Rain = 0
KCR1 071203Z 03010KT 02/00 A3036 RMK A01 T00230003  RH  087%=      5-min Rain = 0
KCR1 071204Z 03009KT 02/00 A3036 RMK A01 T00230003  RH  087%=      5-min Rain = 0
KCR1 071205Z 03008KT 02/00 A3036 RMK A01 T00230003  RH  087%=      5-min Rain = 0
KCR1 071206Z 02008KT 02/00 A3036 RMK A01 T00230004  RH  087%=      5-min Rain = 0
KCR1 071207Z 02009KT 02/00 A3036 RMK A01 T00230004  RH  087%=      5-min Rain = 0
KCR1 071208Z 02009KT 02/00 A3036 RMK A01 T00230004  RH  087%=      5-min Rain = 0
KCR1 071209Z 02009KT 02/00 A3036 RMK A01 T00230004  RH  087%=      5-min Rain = 0
KCR1 071210Z 03008KT 02/00 A3036 RMK A01 T00230004  RH  087%=      5-min Rain = 0
KCR1 071211Z 03008KT 02/00 A3036 RMK A01 T00230004  RH  088%=      5-min Rain = 0
KCR1 071212Z 03008KT 02/00 A3036 RMK A01 T00230004  RH  088%=      5-min Rain = 0
KCR1 071213Z 03007KT 02/00 A3036 RMK A01 T00230004  RH  088%=      5-min Rain = 0
KCR1 071214Z 03007KT 02/00 A3036 RMK A01 T00230004  RH  088%=      5-min Rain = 0
KCR1 071215Z 04007KT 02/00 A3036 RMK A01 T00230004  RH  088%=      5-min Rain = 0
KCR1 071216Z 03008KT 02/00 A3037 RMK A01 T00220004  RH  088%=      5-min Rain = 0
KCR1 071217Z 02006KT 02/00 A3037 RMK A01 T00220004  RH  088%=      5-min Rain = 0
KCR1 071218Z 02007KT 02/00 A3037 RMK A01 T00220004  RH  088%=      5-min Rain = 0
KCR1 071219Z 02008KT 02/01 A3037 RMK A01 T00220005  RH  088%=      5-min Rain = 0
KCR1 071220Z 02008KT 02/01 A3036 RMK A01 T00220005  RH  088%=      5-min Rain = 0
KCR1 071221Z 02008KT 02/01 A3036 RMK A01 T00220005  RH  088%=      5-min Rain = 0
KCR1 071222Z 02007KT 02/01 A3036 RMK A01 T00220005  RH  088%=      5-min Rain = 0
KCR1 071223Z 02008KT 02/01 A3036 RMK A01 T00220005  RH  088%=      5-min Rain = 0
KCR1 071224Z 02008KT 02/01 A3036 RMK A01 T00220005  RH  088%=      5-min Rain = 0
KCR1 071225Z 02008KT 02/01 A3036 RMK A01 T00220005  RH  089%=      5-min Rain = 0
KCR1 071226Z 02008KT 02/01 A3036 RMK A01 T00220005  RH  089%=      5-min Rain = 0
KCR1 071227Z 02007KT 02/01 A3037 RMK A01 T00220006  RH  089%=      5-min Rain = 0
KCR1 071228Z 01007KT 02/01 A3037 RMK A01 T00210006  RH  089%=      5-min Rain = 0
KCR1 071229Z 02007KT 02/01 A3036 RMK A01 T00210005  RH  089%=      5-min Rain = 0
KCR1 071230Z 02007KT 02/01 A3036 RMK A01 T00210006  RH  090%=      5-min Rain = 0
KCR1 071231Z 02007KT 02/01 A3036 RMK A01 T00210006  RH  090%=      5-min Rain = 0
KCR1 071232Z 03007KT 02/01 A3036 RMK A01 T00210006  RH  090%=      5-min Rain = 0
KCR1 071233Z 04005KT 02/01 A3036 RMK A01 T00210007  RH  090%=      5-min Rain = 0
KCR1 071234Z 04006KT 02/01 A3036 RMK A01 T00210007  RH  090%=      5-min Rain = 0
KCR1 071235Z 03007KT 02/01 A3036 RMK A01 T00220008  RH  091%=      5-min Rain = 0
KCR1 071236Z 03006KT 02/01 A3037 RMK A01 T00220008  RH  091%=      5-min Rain = 0
KCR1 071237Z 02007KT 02/01 A3037 RMK A01 T00220008  RH  091%=      5-min Rain = 0
KCR1 071238Z 02008KT 02/01 A3037 RMK A01 T00210008  RH  091%=      5-min Rain = 0
KCR1 071239Z 03008KT 02/01 A3037 RMK A01 T00210008  RH  091%=      5-min Rain = 0
KCR1 071240Z 04008KT 02/01 A3036 RMK A01 T00200008  RH  091%=      5-min Rain = 0
KCR1 071241Z 04008KT 02/01 A3036 RMK A01 T00200008  RH  092%=      5-min Rain = 0
KCR1 071242Z 04007KT 02/01 A3036 RMK A01 T00200008  RH  092%=      5-min Rain = 0
KCR1 071243Z 04006KT 02/01 A3036 RMK A01 T00200009  RH  092%=      5-min Rain = 0
KCR1 071244Z 04007KT 02/01 A3036 RMK A01 T00200009  RH  093%=      5-min Rain = 0
KCR1 071245Z 05007KT 02/01 A3036 RMK A01 T00200009  RH  093%=      5-min Rain = 0
KCR1 071246Z 05007KT 02/01 A3036 RMK A01 T00200009  RH  093%=      5-min Rain = 0
KCR1 071247Z 06009KT 02/01 A3035 RMK A01 T00200009  RH  093%=      5-min Rain = 0
KCR1 071248Z 06008KT 02/01 A3035 RMK A01 T00200009  RH  093%=      5-min Rain = 0
KCR1 071249Z 06009KT 02/01 A3035 RMK A01 T00200010  RH  093%=      5-min Rain = 0
KCR1 071250Z 06011KT 02/01 A3034 RMK A01 T00200010  RH  094%=      5-min Rain = 0
KCR1 071251Z 06011KT 02/01 A3033 RMK A01 T00190010  RH  094%=      5-min Rain = 0
KCR1 071252Z 06013KT 02/01 A3033 RMK A01 T00190010  RH  094%=      5-min Rain = 0
KCR1 071253Z 07012KT 02/01 A3032 RMK A01 T00190010  RH  094%=      5-min Rain = 0
KCR1 071254Z 07012KT 02/01 A3032 RMK A01 T00180010  RH  094%=      5-min Rain = 0
KCR1 071255Z 06013KT 02/01 A3032 RMK A01 T00180010  RH  095%=      5-min Rain = 0
KCR1 071256Z 06014KT 02/01 A3031 RMK A01 T00180011  RH  095%=      5-min Rain = 0
KCR1 071257Z 06016KT 02/01 A3031 RMK A01 T00180011  RH  095%=      5-min Rain = 0
KCR1 071258Z 06016KT 02/01 A303 RMK A01 T00170010  RH  095%=      5-min Rain = 0
KCR1 071259Z 06017KT 02/01 A3029 RMK A01 T00170010  RH  095%=      5-min Rain = 0
KCR1 071300Z 06017KT 02/01 A3028 RMK A01 T00170011  RH  096%=      5-min Rain = 0
KCR1 071301Z 06018KT 02/01 A3028 RMK A01 T00170011  RH  096%=      5-min Rain = 0
KCR1 071302Z 06016KT 02/01 A3028 RMK A01 T00170011  RH  096%=      5-min Rain = 0
KCR1 071303Z 06018KT 02/01 A3027 RMK A01 T00160011  RH  096%=      5-min Rain = 0
KCR1 071304Z 05019KT 02/01 A3026 RMK A01 T00160011  RH  096%=      5-min Rain = 0
KCR1 071305Z 05022KT 02/01 A3026 RMK A01 T00160011  RH  096%=      5-min Rain = 0
KCR1 071306Z 04020KT 02/01 A3027 RMK A01 T00150010  RH  096%=      5-min Rain = 0
KCR1 071307Z 04017KT 02/01 A3028 RMK A01 T00150010  RH  097%=      5-min Rain = 0
KCR1 071308Z 03016KT 02/01 A3029 RMK A01 T00150010  RH  097%=      5-min Rain = 0
KCR1 071309Z 03016KT 02/01 A3029 RMK A01 T00150010  RH  097%=      5-min Rain = 0
KCR1 071310Z 03015KT 02/01 A3029 RMK A01 T00150011  RH  097%=      5-min Rain = 0
KCR1 071311Z 03016KT 02/01 A303 RMK A01 T00160011  RH  097%=      5-min Rain = 0
KCR1 071312Z 03013KT 02/01 A3031 RMK A01 T00150010  RH  097%=      5-min Rain = 0
KCR1 071313Z 04010KT 02/01 A3032 RMK A01 T00150010  RH  097%=      5-min Rain = 0
KCR1 071314Z 04009KT 02/01 A3033 RMK A01 T00150011  RH  097%=      5-min Rain = 0
KCR1 071315Z 04008KT 02/01 A3034 RMK A01 T00150010  RH  097%=      5-min Rain = 0
KCR1 071316Z 04007KT 02/01 A3035 RMK A01 T00150011  RH  097%=      5-min Rain = 0
KCR1 071317Z 03004KT 02/01 A3036 RMK A01 T00150010  RH  097%=      5-min Rain = 0
KCR1 071318Z 00003KT 02/01 A3037 RMK A01 T00150011  RH  097%=      5-min Rain = 0
KCR1 071319Z 02006KT 02/01 A3037 RMK A01 T00150011  RH  097%=      5-min Rain = 0
KCR1 071320Z 03006KT 02/01 A3037 RMK A01 T00150011  RH  097%=      5-min Rain = 0
KCR1 071321Z 02006KT 02/01 A3037 RMK A01 T00150011  RH  097%=      5-min Rain = 0
KCR1 071322Z 02006KT 02/01 A3037 RMK A01 T00150010  RH  097%=      5-min Rain = 0
KCR1 071323Z 03007KT 02/01 A3037 RMK A01 T00150010  RH  097%=      5-min Rain = 0
KCR1 071324Z 03008KT 02/01 A3037 RMK A01 T00150010  RH  097%=      5-min Rain = 0
KCR1 071325Z 02007KT 02/01 A3037 RMK A01 T00150010  RH  097%=      5-min Rain = 0
KCR1 071326Z 02007KT 02/01 A3037 RMK A01 T00150010  RH  097%=      5-min Rain = 0
KCR1 071327Z 02007KT 02/01 A3037 RMK A01 T00150010  RH  097%=      5-min Rain = 0
KCR1 071328Z 01008KT 02/01 A3037 RMK A01 T00150010  RH  097%=      5-min Rain = 0
KCR1 071329Z 03009KT 02/01 A3037 RMK A01 T00150010  RH  097%=      5-min Rain = 0
KCR1 071330Z 03007KT 02/01 A3037 RMK A01 T00150010  RH  097%=      5-min Rain = 0
KCR1 071331Z 02007KT 02/01 A3038 RMK A01 T00150010  RH  097%=      5-min Rain = 0
KCR1 071332Z 02006KT 02/01 A3038 RMK A01 T00150010  RH  097%=      5-min Rain = 0
KCR1 071333Z 01008KT 02/01 A3038 RMK A01 T00150010  RH  097%=      5-min Rain = 0
KCR1 071334Z 01009KT 02/01 A3038 RMK A01 T00150010  RH  097%=      5-min Rain = 0
KCR1 071335Z 02010KT 02/01 A3038 RMK A01 T00150010  RH  097%=      5-min Rain = 0
KCR1 071336Z 02010KT 02/01 A3038 RMK A01 T00150010  RH  097%=      5-min Rain = 0
KCR1 071337Z 02009KT 01/01 A3038 RMK A01 T00140009  RH  096%=      5-min Rain = 0
KCR1 071338Z 01008KT 01/01 A3038 RMK A01 T00140009  RH  096%=      5-min Rain = 0
KCR1 071339Z 01010KT 01/01 A3038 RMK A01 T00140010  RH  097%=      5-min Rain = 0
KCR1 071340Z 01009KT 01/01 A3038 RMK A01 T00140009  RH  097%=      5-min Rain = 0
KCR1 071341Z 01009KT 02/01 A3038 RMK A01 T00150010  RH  097%=      5-min Rain = 0
KCR1 071342Z 02009KT 02/01 A3037 RMK A01 T00150010  RH  096%=      5-min Rain = 0
KCR1 071343Z 02009KT 02/01 A3037 RMK A01 T00150010  RH  096%=      5-min Rain = 0
KCR1 071344Z 02011KT 02/01 A3037 RMK A01 T00150010  RH  096%=      5-min Rain = 0
KCR1 071345Z 02010KT 01/01 A3037 RMK A01 T00140009  RH  096%=      5-min Rain = 0
KCR1 071346Z 02009KT 01/01 A3037 RMK A01 T00140009  RH  096%=      5-min Rain = 0
KCR1 071347Z 02007KT 01/01 A3037 RMK A01 T00140009  RH  096%=      5-min Rain = 0
KCR1 071348Z 02008KT 01/01 A3037 RMK A01 T00140009  RH  097%=      5-min Rain = 0
KCR1 071349Z 02008KT 02/01 A3037 RMK A01 T00150010  RH  097%=      5-min Rain = 0
KCR1 071350Z 02007KT 02/01 A3037 RMK A01 T00150010  RH  097%=      5-min Rain = 0
KCR1 071351Z 01008KT 02/01 A3037 RMK A01 T00150011  RH  097%=      5-min Rain = 0
KCR1 071352Z 01009KT 02/01 A3037 RMK A01 T00150011  RH  097%=      5-min Rain = 0
KCR1 071353Z 02010KT 02/01 A3037 RMK A01 T00150011  RH  097%=      5-min Rain = 0
KCR1 071354Z 02010KT 02/01 A3037 RMK A01 T00150011  RH  097%=      5-min Rain = 0
KCR1 071355Z 02010KT 01/01 A3037 RMK A01 T00140010  RH  097%=      5-min Rain = 0
KCR1 071356Z 02008KT 01/01 A3038 RMK A01 T00140010  RH  097%=      5-min Rain = 0
KCR1 071357Z 02009KT 01/01 A3037 RMK A01 T00140010  RH  097%=      5-min Rain = 0
KCR1 071358Z 02010KT 01/01 A3037 RMK A01 T00140010  RH  097%=      5-min Rain = 0
KCR1 071359Z 02009KT 01/01 A3038 RMK A01 T00140010  RH  097%=      5-min Rain = 0
KCR1 071400Z 02008KT 01/01 A3038 RMK A01 T00140009  RH  097%=      5-min Rain = 0
KCR1 071401Z 01009KT 01/01 A3038 RMK A01 T00140010  RH  097%=      5-min Rain = 0
KCR1 071402Z 01012KT 01/01 A3038 RMK A01 T00140010  RH  097%=      5-min Rain = 0
KCR1 071403Z 02010KT 01/01 A3038 RMK A01 T00140010  RH  097%=      5-min Rain = 0
KCR1 071404Z 01010KT 01/01 A3038 RMK A01 T00140010  RH  097%=      5-min Rain = 0
KCR1 071405Z 02010KT 01/01 A3038 RMK A01 T00140010  RH  097%=      5-min Rain = 0
KCR1 071406Z 02010KT 01/01 A3038 RMK A01 T00140010  RH  097%=      5-min Rain = 0
KCR1 071407Z 02010KT 01/01 A3038 RMK A01 T00140009  RH  097%=      5-min Rain = 0
KCR1 071408Z 02009KT 01/01 A3038 RMK A01 T00130009  RH  097%=      5-min Rain = 0
KCR1 071409Z 01010KT 01/01 A3039 RMK A01 T00130009  RH  097%=      5-min Rain = 0
KCR1 071410Z 02009KT 01/01 A3039 RMK A01 T00130008  RH  097%=      5-min Rain = 0
KCR1 071411Z 01009KT 01/01 A3039 RMK A01 T00130008  RH  097%=      5-min Rain = 0
KCR1 071412Z 02009KT 01/01 A3039 RMK A01 T00130008  RH  097%=      5-min Rain = 0
KCR1 071413Z 02010KT 01/01 A3039 RMK A01 T00130008  RH  097%=      5-min Rain = 0
KCR1 071414Z 02008KT 01/01 A3039 RMK A01 T00130008  RH  097%=      5-min Rain = 0
KCR1 071415Z 02008KT 01/01 A3039 RMK A01 T00130009  RH  097%=      5-min Rain = 0
KCR1 071416Z 02008KT 01/01 A3039 RMK A01 T00130009  RH  097%=      5-min Rain = 0
KCR1 071417Z 02007KT 01/01 A3039 RMK A01 T00130009  RH  097%=      5-min Rain = 0
KCR1 071418Z 02009KT 01/01 A3039 RMK A01 T00130009  RH  097%=      5-min Rain = 0
KCR1 071419Z 02009KT 01/01 A3039 RMK A01 T00130009  RH  097%=      5-min Rain = 0
KCR1 071420Z 02009KT 01/01 A3038 RMK A01 T00130009  RH  097%=      5-min Rain = 0
KCR1 071421Z 02010KT 01/01 A3038 RMK A01 T00130009  RH  097%=      5-min Rain = 0
KCR1 071422Z 02009KT 01/01 A3038 RMK A01 T00130009  RH  097%=      5-min Rain = 0
KCR1 071423Z 02009KT 01/01 A3038 RMK A01 T00120008  RH  097%=      5-min Rain = 0
KCR1 071424Z 02009KT 01/01 A3038 RMK A01 T00130008  RH  097%=      5-min Rain = 0
KCR1 071425Z 02010KT 01/01 A3038 RMK A01 T00120008  RH  097%=      5-min Rain = 0
KCR1 071426Z 02010KT 01/01 A3038 RMK A01 T00120008  RH  097%=      5-min Rain = 0
KCR1 071427Z 02010KT 01/01 A3038 RMK A01 T00120008  RH  097%=      5-min Rain = 0
KCR1 071428Z 01009KT 01/01 A3038 RMK A01 T00130008  RH  097%=      5-min Rain = 0
KCR1 071429Z 02011KT 01/01 A3038 RMK A01 T00130008  RH  097%=      5-min Rain = 0
KCR1 071430Z 02008KT 01/01 A3038 RMK A01 T00130008  RH  097%=      5-min Rain = 0
KCR1 071431Z 02010KT 01/01 A3038 RMK A01 T00130008  RH  097%=      5-min Rain = 0
KCR1 071432Z 03010KT 01/01 A3038 RMK A01 T00130009  RH  097%=      5-min Rain = 0
KCR1 071433Z 03009KT 01/01 A3038 RMK A01 T00130008  RH  097%=      5-min Rain = 0
KCR1 071434Z 03009KT 01/01 A3038 RMK A01 T00120008  RH  097%=      5-min Rain = 0
KCR1 071435Z 02009KT 01/01 A3038 RMK A01 T00130008  RH  097%=      5-min Rain = 0
KCR1 071436Z 02011KT 01/01 A3038 RMK A01 T00120008  RH  097%=      5-min Rain = 0
KCR1 071437Z 02010KT 01/01 A3038 RMK A01 T00120008  RH  097%=      5-min Rain = 0
KCR1 071438Z 02011KT 01/01 A3038 RMK A01 T00120008  RH  097%=      5-min Rain = 0
KCR1 071439Z 02011KT 01/01 A3038 RMK A01 T00120007  RH  097%=      5-min Rain = 0
KCR1 071440Z 02010KT 01/01 A3038 RMK A01 T00110007  RH  097%=      5-min Rain = 0
KCR1 071441Z 03012KT 01/01 A3038 RMK A01 T00110006  RH  097%=      5-min Rain = 0
KCR1 071442Z 02011KT 01/01 A3038 RMK A01 T00110006  RH  097%=      5-min Rain = 0
KCR1 071443Z 03011KT 01/01 A3038 RMK A01 T00110006  RH  097%=      5-min Rain = 0
KCR1 071444Z 03010KT 01/01 A3038 RMK A01 T00110006  RH  097%=      5-min Rain = 0
KCR1 071445Z 03009KT 01/01 A3038 RMK A01 T00110006  RH  097%=      5-min Rain = 0
KCR1 071446Z 03010KT 01/01 A3038 RMK A01 T00110006  RH  097%=      5-min Rain = 0
KCR1 071447Z 03010KT 01/01 A3038 RMK A01 T00110006  RH  096%=      5-min Rain = 0
KCR1 071448Z 03011KT 01/01 A3038 RMK A01 T00110005  RH  096%=      5-min Rain = 0
KCR1 071449Z 02011KT 01/01 A3038 RMK A01 T00110005  RH  096%=      5-min Rain = 0
KCR1 071450Z 03010KT 01/01 A3038 RMK A01 T00110005  RH  096%=      5-min Rain = 0
KCR1 071451Z 02009KT 01/01 A3038 RMK A01 T00110005  RH  096%=      5-min Rain = 0
KCR1 071452Z 02009KT 01/00 A3038 RMK A01 T00110004  RH  096%=      5-min Rain = 0
KCR1 071453Z 03012KT 01/00 A3038 RMK A01 T00110004  RH  096%=      5-min Rain = 0
KCR1 071454Z 02012KT 01/00 A3038 RMK A01 T00110004  RH  095%=      5-min Rain = 0
KCR1 071455Z 02011KT 01/00 A3038 RMK A01 T00100003  RH  095%=      5-min Rain = 0
KCR1 071456Z 02011KT 01/00 A3038 RMK A01 T00110003  RH  095%=      5-min Rain = 0
KCR1 071457Z 03011KT 01/00 A3038 RMK A01 T00110003  RH  095%=      5-min Rain = 0
KCR1 071458Z 02010KT 01/00 A3038 RMK A01 T00110003  RH  095%=      5-min Rain = 0
KCR1 071459Z 02011KT 01/00 A3038 RMK A01 T00110003  RH  095%=      5-min Rain = 0
KCR1 071500Z 02010KT 01/00 A3038 RMK A01 T00110003  RH  095%=      5-min Rain = 0
KCR1 071501Z 02010KT 01/00 A3038 RMK A01 T00110003  RH  095%=      5-min Rain = 0
KCR1 071502Z 02010KT 01/00 A3038 RMK A01 T00110003  RH  095%=      5-min Rain = 0
KCR1 071503Z 02010KT 01/00 A3038 RMK A01 T00100002  RH  095%=      5-min Rain = 0
KCR1 071504Z 02010KT 01/00 A3038 RMK A01 T00100003  RH  095%=      5-min Rain = 0
KCR1 071505Z 03010KT 01/00 A3038 RMK A01 T00100003  RH  095%=      5-min Rain = 0
KCR1 071506Z 02009KT 01/00 A3038 RMK A01 T00100003  RH  095%=      5-min Rain = 0
KCR1 071507Z 03008KT 01/00 A3038 RMK A01 T00100003  RH  095%=      5-min Rain = 0
KCR1 071508Z 02009KT 01/00 A3038 RMK A01 T00100003  RH  095%=      5-min Rain = 0
KCR1 071509Z 02009KT 01/00 A3038 RMK A01 T00100003  RH  095%=      5-min Rain = 0
KCR1 071510Z 03010KT 01/00 A3038 RMK A01 T00110003  RH  095%=      5-min Rain = 0
KCR1 071511Z 03010KT 01/00 A3038 RMK A01 T00100003  RH  095%=      5-min Rain = 0
KCR1 071512Z 02008KT 01/00 A3038 RMK A01 T00100003  RH  095%=      5-min Rain = 0
KCR1 071513Z 02009KT 01/00 A3038 RMK A01 T00100003  RH  095%=      5-min Rain = 0
KCR1 071514Z 02010KT 01/00 A3038 RMK A01 T00100003  RH  095%=      5-min Rain = 0
KCR1 071515Z 03009KT 01/00 A3038 RMK A01 T00100003  RH  095%=      5-min Rain = 0
KCR1 071516Z 04009KT 01/00 A3038 RMK A01 T00100003  RH  095%=      5-min Rain = 0
KCR1 071517Z 04010KT 01/00 A3038 RMK A01 T00100003  RH  095%=      5-min Rain = 0
KCR1 071518Z 04010KT 01/00 A3038 RMK A01 T00100002  RH  095%=      5-min Rain = 0
KCR1 071519Z 03009KT 01/00 A3038 RMK A01 T00100002  RH  095%=      5-min Rain = 0
KCR1 071520Z 02009KT 01/00 A3039 RMK A01 T00100003  RH  095%=      5-min Rain = 0
KCR1 071521Z 02012KT 01/00 A3039 RMK A01 T00100003  RH  095%=      5-min Rain = 0
KCR1 071522Z 02011KT 01/00 A3039 RMK A01 T00100002  RH  095%=      5-min Rain = 0
KCR1 071523Z 02010KT 01/00 A3039 RMK A01 T00100002  RH  094%=      5-min Rain = 0
KCR1 071524Z 02008KT 01/00 A3039 RMK A01 T00100002  RH  094%=      5-min Rain = 0.01
KCR1 071525Z 02010KT 01/00 A3039 RMK A01 T00100002  RH  095%=      5-min Rain = 0
KCR1 071526Z 02010KT 01/00 A3039 RMK A01 T00100002  RH  094%=      5-min Rain = 0
KCR1 071527Z 02009KT 01/00 A3039 RMK A01 T00090001  RH  094%=      5-min Rain = 0
KCR1 071528Z 02009KT 01/00 A3039 RMK A01 T00090001  RH  094%=      5-min Rain = 0
KCR1 071529Z 01010KT 01/00 A3039 RMK A01 T00090001  RH  094%=      5-min Rain = 0
KCR1 071530Z 01009KT 01/00 A3039 RMK A01 T00090001  RH  094%=      5-min Rain = 0
KCR1 071531Z 01009KT 01/00 A304 RMK A01 T00090001  RH  094%=      5-min Rain = 0
KCR1 071532Z 01010KT 01/00 A304 RMK A01 T00090001  RH  094%=      5-min Rain = 0
KCR1 071533Z 01010KT 01/00 A304 RMK A01 T00090001  RH  094%=      5-min Rain = 0
KCR1 071534Z 01010KT 01/00 A304 RMK A01 T00090001  RH  094%=      5-min Rain = 0
KCR1 071535Z 01010KT 01/00 A304 RMK A01 T00090001  RH  094%=      5-min Rain = 0
KCR1 071536Z 01011KT 01/00 A304 RMK A01 T00100002  RH  095%=      5-min Rain = 0
KCR1 071537Z 01011KT 01/00 A304 RMK A01 T00090001  RH  094%=      5-min Rain = 0
KCR1 071538Z 01010KT 01/00 A304 RMK A01 T00090001  RH  094%=      5-min Rain = 0
KCR1 071539Z 02011KT 01/00 A304 RMK A01 T00090000  RH  094%=      5-min Rain = 0
KCR1 071540Z 02009KT 01/00 A304 RMK A01 T00090000  RH  094%=      5-min Rain = 0
KCR1 071541Z 02009KT 01/00 A304 RMK A01 T00090001  RH  094%=      5-min Rain = 0
KCR1 071542Z 01009KT 01/00 A304 RMK A01 T00090002  RH  095%=      5-min Rain = 0.01
KCR1 071543Z 01010KT 01/00 A304 RMK A01 T00100002  RH  095%=      5-min Rain = 0
KCR1 071544Z 01010KT 01/00 A304 RMK A01 T00090002  RH  095%=      5-min Rain = 0
KCR1 071545Z 01009KT 01/00 A304 RMK A01 T00090002  RH  095%=      5-min Rain = 0
KCR1 071546Z 01009KT 01/00 A3041 RMK A01 T00090002  RH  095%=      5-min Rain = 0
KCR1 071547Z 01008KT 01/00 A3041 RMK A01 T00090002  RH  095%=      5-min Rain = 0.01
KCR1 071548Z 01008KT 01/00 A3041 RMK A01 T00090002  RH  095%=      5-min Rain = 0
KCR1 071549Z 01010KT 01/00 A3041 RMK A01 T00090002  RH  095%=      5-min Rain = 0
KCR1 071550Z 00009KT 01/00 A3041 RMK A01 T00090002  RH  095%=      5-min Rain = 0
KCR1 071551Z 01008KT 01/00 A3041 RMK A01 T00090002  RH  095%=      5-min Rain = 0
KCR1 071552Z 01008KT 01/00 A3041 RMK A01 T00100003  RH  095%=      5-min Rain = 0
KCR1 071553Z 02009KT 01/00 A3042 RMK A01 T00100003  RH  095%=      5-min Rain = 0
KCR1 071554Z 01009KT 01/00 A3042 RMK A01 T00100003  RH  095%=      5-min Rain = 0
KCR1 071555Z 01009KT 01/00 A3041 RMK A01 T00100003  RH  095%=      5-min Rain = 0
KCR1 071556Z 01008KT 01/00 A3041 RMK A01 T00100003  RH  095%=      5-min Rain = 0
KCR1 071557Z 02009KT 01/00 A3041 RMK A01 T00100003  RH  095%=      5-min Rain = 0
KCR1 071558Z 02008KT 01/00 A3041 RMK A01 T00100003  RH  095%=      5-min Rain = 0
KCR1 071559Z 01008KT 01/00 A3041 RMK A01 T00100003  RH  095%=      5-min Rain = 0
KCR1 071600Z 01008KT 01/00 A3042 RMK A01 T00100003  RH  095%=      5-min Rain = 0
KCR1 071601Z 01008KT 01/00 A3042 RMK A01 T00100003  RH  095%=      5-min Rain = 0
KCR1 071602Z 02009KT 01/00 A3041 RMK A01 T00100004  RH  096%=      5-min Rain = 0
KCR1 071603Z 02009KT 01/00 A3041 RMK A01 T00100004  RH  096%=      5-min Rain = 0.01
KCR1 071604Z 01009KT 01/00 A3041 RMK A01 T00100004  RH  096%=      5-min Rain = 0
KCR1 071605Z 01009KT 01/00 A3041 RMK A01 T00100004  RH  095%=      5-min Rain = 0
KCR1 071606Z 01009KT 01/00 A3042 RMK A01 T00100004  RH  095%=      5-min Rain = 0
KCR1 071607Z 00009KT 01/00 A3042 RMK A01 T00100004  RH  095%=      5-min Rain = 0
KCR1 071608Z 01009KT 01/00 A3042 RMK A01 T00100003  RH  095%=      5-min Rain = 0
KCR1 071609Z 01009KT 01/00 A3042 RMK A01 T00100003  RH  095%=      5-min Rain = 0
KCR1 071610Z 00009KT 01/00 A3042 RMK A01 T00100003  RH  095%=      5-min Rain = 0
KCR1 071611Z 35008KT 01/00 A3042 RMK A01 T00100002  RH  095%=      5-min Rain = 0
KCR1 071612Z 35010KT 01/00 A3042 RMK A01 T00100003  RH  095%=      5-min Rain = 0
KCR1 071613Z 35010KT 01/00 A3042 RMK A01 T00100002  RH  095%=      5-min Rain = 0
KCR1 071614Z 36010KT 01/00 A3042 RMK A01 T00090001  RH  094%=      5-min Rain = 0.01
KCR1 071615Z 00010KT 01/00 A3042 RMK A01 T00090001  RH  094%=      5-min Rain = 0
KCR1 071616Z 36010KT 01/00 A3042 RMK A01 T00090001  RH  094%=      5-min Rain = 0
KCR1 071617Z 00010KT 01/00 A3042 RMK A01 T00100001  RH  094%=      5-min Rain = 0
KCR1 071618Z 36009KT 01/00 A3042 RMK A01 T00100001  RH  094%=      5-min Rain = 0
KCR1 071619Z 00009KT 01/00 A3042 RMK A01 T00100001  RH  094%=      5-min Rain = 0
KCR1 071620Z 36009KT 01/00 A3042 RMK A01 T00100001  RH  094%=      5-min Rain = 0
KCR1 071621Z 36009KT 01/00 A3042 RMK A01 T00100001  RH  094%=      5-min Rain = 0
KCR1 071622Z 00007KT 01/00 A3042 RMK A01 T00100001  RH  094%=      5-min Rain = 0
KCR1 071623Z 00008KT 01/00 A3042 RMK A01 T00100001  RH  094%=      5-min Rain = 0
KCR1 071624Z 00008KT 01/00 A3042 RMK A01 T00100001  RH  094%=      5-min Rain = 0
KCR1 071625Z 01008KT 01/00 A3042 RMK A01 T00100001  RH  094%=      5-min Rain = 0
KCR1 071626Z 01007KT 01/00 A3042 RMK A01 T00100001  RH  094%=      5-min Rain = 0
KCR1 071627Z 02007KT 01/00 A3042 RMK A01 T00100002  RH  094%=      5-min Rain = 0
KCR1 071628Z 02009KT 01/00 A3042 RMK A01 T00100002  RH  094%=      5-min Rain = 0
KCR1 071629Z 02008KT 01/00 A3042 RMK A01 T00100002  RH  094%=      5-min Rain = 0
KCR1 071630Z 01008KT 01/00 A3042 RMK A01 T00100002  RH  094%=      5-min Rain = 0.01
KCR1 071631Z 02008KT 01/00 A3042 RMK A01 T00100002  RH  094%=      5-min Rain = 0
KCR1 071632Z 02008KT 01/00 A3042 RMK A01 T00100002  RH  094%=      5-min Rain = 0
KCR1 071633Z 01007KT 01/00 A3042 RMK A01 T00100002  RH  094%=      5-min Rain = 0
KCR1 071634Z 01008KT 01/00 A3042 RMK A01 T00100002  RH  094%=      5-min Rain = 0
KCR1 071635Z 01006KT 01/00 A3042 RMK A01 T00100002  RH  094%=      5-min Rain = 0
KCR1 071636Z 00007KT 01/00 A3042 RMK A01 T00110003  RH  095%=      5-min Rain = 0
KCR1 071637Z 00008KT 01/00 A3042 RMK A01 T00110003  RH  095%=      5-min Rain = 0
KCR1 071638Z 01008KT 01/00 A3042 RMK A01 T00110003  RH  094%=      5-min Rain = 0
KCR1 071639Z 02008KT 01/00 A3042 RMK A01 T00110003  RH  094%=      5-min Rain = 0
KCR1 071640Z 01008KT 01/00 A3042 RMK A01 T00110002  RH  094%=      5-min Rain = 0
KCR1 071641Z 01008KT 01/00 A3042 RMK A01 T00110003  RH  094%=      5-min Rain = 0
KCR1 071642Z 01009KT 01/00 A3042 RMK A01 T00110003  RH  094%=      5-min Rain = 0
KCR1 071643Z 01009KT 01/00 A3042 RMK A01 T00110002  RH  094%=      5-min Rain = 0
KCR1 071644Z 02009KT 01/00 A3042 RMK A01 T00110001  RH  094%=      5-min Rain = 0
KCR1 071645Z 01009KT 01/00 A3042 RMK A01 T00110001  RH  094%=      5-min Rain = 0
KCR1 071646Z 01009KT 01/00 A3042 RMK A01 T00110001  RH  093%=      5-min Rain = 0
KCR1 071647Z 02009KT 01/00 A3042 RMK A01 T00110001  RH  093%=      5-min Rain = 0
KCR1 071648Z 01009KT 01/00 A3042 RMK A01 T00110001  RH  093%=      5-min Rain = 0
KCR1 071649Z 02009KT 01/00 A3041 RMK A01 T00110001  RH  093%=      5-min Rain = 0
KCR1 071650Z 02009KT 01/00 A3041 RMK A01 T00110001  RH  093%=      5-min Rain = 0
KCR1 071651Z 01009KT 01/00 A3041 RMK A01 T00100001  RH  093%=      5-min Rain = 0
KCR1 071652Z 01007KT 01/00 A3041 RMK A01 T00100001  RH  094%=      5-min Rain = 0
KCR1 071653Z 00009KT 01/00 A3041 RMK A01 T00110003  RH  094%=      5-min Rain = 0
KCR1 071654Z 00009KT 01/00 A3041 RMK A01 T00110002  RH  094%=      5-min Rain = 0
KCR1 071655Z 02008KT 01/00 A3041 RMK A01 T00110002  RH  094%=      5-min Rain = 0
KCR1 071656Z 02009KT 01/00 A3041 RMK A01 T00110002  RH  094%=      5-min Rain = 0
KCR1 071657Z 01008KT 01/00 A3041 RMK A01 T00110002  RH  094%=      5-min Rain = 0
KCR1 071658Z 00009KT 01/00 A3041 RMK A01 T00110002  RH  094%=      5-min Rain = 0
KCR1 071659Z 00009KT 01/00 A3041 RMK A01 T00110002  RH  094%=      5-min Rain = 0
KCR1 071700Z 00008KT 01/00 A3041 RMK A01 T00110002  RH  094%=      5-min Rain = 0
KCR1 071701Z 00009KT 01/00 A3041 RMK A01 T00110002  RH  094%=      5-min Rain = 0
KCR1 071702Z 00009KT 01/00 A3041 RMK A01 T00110002  RH  094%=      5-min Rain = 0
KCR1 071703Z 01009KT 01/00 A3041 RMK A01 T00110002  RH  094%=      5-min Rain = 0
KCR1 071704Z 01010KT 01/00 A3041 RMK A01 T00110001  RH  093%=      5-min Rain = 0
KCR1 071705Z 01010KT 01/00 A304 RMK A01 T001000-0  RH  093%=      5-min Rain = 0
KCR1 071706Z 01009KT 01/00 A3041 RMK A01 T001000-0  RH  093%=      5-min Rain = 0
KCR1 071707Z 02009KT 01/00 A304 RMK A01 T00100000  RH  093%=      5-min Rain = 0
KCR1 071708Z 02009KT 01/00 A304 RMK A01 T00110001  RH  093%=      5-min Rain = 0
KCR1 071709Z 02009KT 01/00 A304 RMK A01 T00110000  RH  093%=      5-min Rain = 0
KCR1 071710Z 01010KT 01/00 A304 RMK A01 T00110000  RH  093%=      5-min Rain = 0
KCR1 071711Z 01009KT 01/M00 A304 RMK A01 T00101001  RH  092%=      5-min Rain = 0
KCR1 071712Z 02011KT 01/00 A304 RMK A01 T001100-0  RH  092%=      5-min Rain = 0
KCR1 071713Z 01010KT 01/M00 A304 RMK A01 T00101001  RH  092%=      5-min Rain = 0
KCR1 071714Z 01011KT 01/M00 A304 RMK A01 T00101001  RH  093%=      5-min Rain = 0
KCR1 071715Z 02010KT 01/M00 A304 RMK A01 T00101001  RH  093%=      5-min Rain = 0
KCR1 071716Z 01010KT 01/M00 A304 RMK A01 T00101001  RH  093%=      5-min Rain = 0
KCR1 071717Z 01010KT 01/M00 A304 RMK A01 T00101001  RH  092%=      5-min Rain = 0
KCR1 071718Z 01009KT 01/M00 A304 RMK A01 T00101001  RH  092%=      5-min Rain = 0
KCR1 071719Z 03008KT 01/M00 A304 RMK A01 T00101001  RH  093%=      5-min Rain = 0
KCR1 071720Z 03009KT 01/00 A304 RMK A01 T00100001  RH  093%=      5-min Rain = 0
KCR1 071721Z 03009KT 01/00 A304 RMK A01 T00110001  RH  093%=      5-min Rain = 0
KCR1 071722Z 03010KT 01/00 A3039 RMK A01 T00100000  RH  093%=      5-min Rain = 0
KCR1 071723Z 02011KT 01/M00 A3039 RMK A01 T00101001  RH  092%=      5-min Rain = 0
KCR1 071724Z 02010KT 01/M00 A3039 RMK A01 T00101001  RH  092%=      5-min Rain = 0
KCR1 071725Z 02009KT 01/M00 A3039 RMK A01 T00101001  RH  093%=      5-min Rain = 0
KCR1 071726Z 03008KT 01/00 A3039 RMK A01 T00100000  RH  093%=      5-min Rain = 0
KCR1 071727Z 03009KT 01/00 A3039 RMK A01 T00110001  RH  094%=      5-min Rain = 0
KCR1 071728Z 03009KT 01/00 A3039 RMK A01 T00110002  RH  094%=      5-min Rain = 0
KCR1 071729Z 03009KT 01/00 A3039 RMK A01 T00110002  RH  094%=      5-min Rain = 0
KCR1 071730Z 02010KT 01/00 A3039 RMK A01 T00110003  RH  094%=      5-min Rain = 0
KCR1 071731Z 02009KT 01/00 A3039 RMK A01 T00110003  RH  094%=      5-min Rain = 0
KCR1 071732Z 02010KT 01/00 A3039 RMK A01 T00110002  RH  094%=      5-min Rain = 0
KCR1 071733Z 02010KT 01/00 A3039 RMK A01 T00110000  RH  093%=      5-min Rain = 0
KCR1 071734Z 02010KT 01/00 A3039 RMK A01 T00110001  RH  093%=      5-min Rain = 0
KCR1 071735Z 02011KT 01/00 A3039 RMK A01 T00110001  RH  093%=      5-min Rain = 0
KCR1 071736Z 02011KT 01/00 A3038 RMK A01 T00110000  RH  093%=      5-min Rain = 0
KCR1 071737Z 02010KT 01/M00 A3038 RMK A01 T00111001  RH  092%=      5-min Rain = 0
KCR1 071738Z 02010KT 01/00 A3038 RMK A01 T001100-0  RH  092%=      5-min Rain = 0
KCR1 071739Z 02009KT 01/00 A3038 RMK A01 T00110001  RH  093%=      5-min Rain = 0
KCR1 071740Z 02010KT 01/00 A3038 RMK A01 T00110001  RH  093%=      5-min Rain = 0
KCR1 071741Z 02010KT 01/00 A3038 RMK A01 T00110001  RH  093%=      5-min Rain = 0
KCR1 071742Z 02009KT 01/00 A3038 RMK A01 T00110001  RH  093%=      5-min Rain = 0
KCR1 071743Z 03010KT 01/00 A3038 RMK A01 T00110001  RH  093%=      5-min Rain = 0
KCR1 071744Z 03009KT 01/00 A3038 RMK A01 T00110001  RH  093%=      5-min Rain = 0
KCR1 071745Z 03010KT 01/00 A3038 RMK A01 T00110001  RH  093%=      5-min Rain = 0
KCR1 071746Z 03010KT 01/00 A3038 RMK A01 T00110001  RH  093%=      5-min Rain = 0
KCR1 071747Z 02010KT 01/00 A3038 RMK A01 T00110001  RH  093%=      5-min Rain = 0
KCR1 071748Z 02011KT 01/00 A3038 RMK A01 T00110001  RH  093%=      5-min Rain = 0
KCR1 071749Z 02010KT 01/00 A3038 RMK A01 T00110001  RH  093%=      5-min Rain = 0
KCR1 071750Z 02011KT 01/00 A3038 RMK A01 T00110000  RH  093%=      5-min Rain = 0
KCR1 071751Z 02011KT 01/00 A3038 RMK A01 T00110000  RH  092%=      5-min Rain = 0
KCR1 071752Z 02010KT 01/00 A3038 RMK A01 T001100-0  RH  092%=      5-min Rain = 0
KCR1 071753Z 02009KT 01/M00 A3038 RMK A01 T00111001  RH  092%=      5-min Rain = 0
KCR1 071754Z 02008KT 01/00 A3038 RMK A01 T00110000  RH  093%=      5-min Rain = 0
KCR1 071755Z 02008KT 01/00 A3038 RMK A01 T00110001  RH  093%=      5-min Rain = 0
KCR1 071756Z 01008KT 01/00 A3038 RMK A01 T00120002  RH  093%=      5-min Rain = 0.01
KCR1 071757Z 02010KT 01/00 A3038 RMK A01 T00120003  RH  094%=      5-min Rain = 0
KCR1 071758Z 02009KT 01/00 A3038 RMK A01 T00120002  RH  093%=      5-min Rain = 0
KCR1 071759Z 02009KT 01/00 A3038 RMK A01 T00120003  RH  093%=      5-min Rain = 0
KCR1 071800Z 02010KT 01/00 A3038 RMK A01 T00120003  RH  093%=      5-min Rain = 0
KCR1 071801Z 02009KT 01/00 A3038 RMK A01 T00120002  RH  093%=      5-min Rain = 0
KCR1 071802Z 02009KT 01/00 A3038 RMK A01 T00110001  RH  093%=      5-min Rain = 0
KCR1 071803Z 01009KT 01/00 A3038 RMK A01 T00120002  RH  093%=      5-min Rain = 0
KCR1 071804Z 01009KT 01/00 A3038 RMK A01 T00110002  RH  093%=      5-min Rain = 0
KCR1 071805Z 01009KT 01/00 A3038 RMK A01 T00110001  RH  093%=      5-min Rain = 0
KCR1 071806Z 01009KT 01/00 A3038 RMK A01 T00110002  RH  093%=      5-min Rain = 0
KCR1 071807Z 01008KT 01/00 A3038 RMK A01 T00110001  RH  093%=      5-min Rain = 0
KCR1 071808Z 01008KT 01/00 A3038 RMK A01 T00120003  RH  094%=      5-min Rain = 0
KCR1 071809Z 01009KT 01/00 A3038 RMK A01 T00120004  RH  094%=      5-min Rain = 0
KCR1 071810Z 00009KT 01/00 A3038 RMK A01 T00120004  RH  094%=      5-min Rain = 0
KCR1 071811Z 00009KT 01/00 A3038 RMK A01 T00120003  RH  094%=      5-min Rain = 0
KCR1 071812Z 01009KT 01/00 A3038 RMK A01 T00110002  RH  094%=      5-min Rain = 0
KCR1 071813Z 01008KT 01/00 A3038 RMK A01 T00110002  RH  094%=      5-min Rain = 0
KCR1 071814Z 00007KT 01/00 A3038 RMK A01 T00110003  RH  094%=      5-min Rain = 0
KCR1 071815Z 01008KT 01/00 A3038 RMK A01 T00120004  RH  094%=      5-min Rain = 0
KCR1 071816Z 01008KT 01/00 A3038 RMK A01 T00120004  RH  094%=      5-min Rain = 0
KCR1 071817Z 00008KT 01/00 A3038 RMK A01 T00120003  RH  094%=      5-min Rain = 0
KCR1 071818Z 01007KT 01/00 A3038 RMK A01 T00120003  RH  094%=      5-min Rain = 0
KCR1 071819Z 01008KT 01/00 A3037 RMK A01 T00120003  RH  094%=      5-min Rain = 0
KCR1 071820Z 01009KT 01/00 A3037 RMK A01 T00120004  RH  094%=      5-min Rain = 0
KCR1 071821Z 00009KT 01/00 A3037 RMK A01 T00120004  RH  094%=      5-min Rain = 0
KCR1 071822Z 35008KT 01/00 A3037 RMK A01 T00110003  RH  094%=      5-min Rain = 0
KCR1 071823Z 35008KT 01/00 A3037 RMK A01 T00120004  RH  095%=      5-min Rain = 0
KCR1 071824Z 35008KT 01/01 A3037 RMK A01 T00120005  RH  095%=      5-min Rain = 0
KCR1 071825Z 36009KT 01/01 A3037 RMK A01 T00130006  RH  095%=      5-min Rain = 0
KCR1 071826Z 35010KT 01/01 A3036 RMK A01 T00120005  RH  095%=      5-min Rain = 0
KCR1 071827Z 36009KT 01/01 A3036 RMK A01 T00120005  RH  095%=      5-min Rain = 0
KCR1 071828Z 00010KT 01/01 A3036 RMK A01 T00120005  RH  095%=      5-min Rain = 0
KCR1 071829Z 00011KT 01/00 A3036 RMK A01 T00120004  RH  095%=      5-min Rain = 0
KCR1 071830Z 00010KT 01/00 A3036 RMK A01 T00120004  RH  095%=      5-min Rain = 0
KCR1 071831Z 00011KT 01/00 A3036 RMK A01 T00120004  RH  095%=      5-min Rain = 0.01
KCR1 071832Z 00011KT 01/00 A3036 RMK A01 T00110002  RH  094%=      5-min Rain = 0
KCR1 071833Z 00011KT 01/00 A3036 RMK A01 T00100001  RH  094%=      5-min Rain = 0
KCR1 071834Z 36010KT 01/00 A3036 RMK A01 T00100001  RH  094%=      5-min Rain = 0
KCR1 071835Z 35009KT 01/00 A3035 RMK A01 T00110003  RH  094%=      5-min Rain = 0
KCR1 071836Z 35012KT 01/00 A3035 RMK A01 T00110003  RH  095%=      5-min Rain = 0
KCR1 071837Z 36011KT 01/00 A3035 RMK A01 T00100002  RH  094%=      5-min Rain = 0
KCR1 071838Z 00011KT 01/00 A3035 RMK A01 T00100002  RH  094%=      5-min Rain = 0
KCR1 071839Z 00009KT 01/00 A3035 RMK A01 T00100002  RH  094%=      5-min Rain = 0
KCR1 071840Z 00010KT 01/00 A3035 RMK A01 T00100003  RH  095%=      5-min Rain = 0
KCR1 071841Z 35010KT 01/00 A3035 RMK A01 T00110004  RH  095%=      5-min Rain = 0
KCR1 071842Z 36011KT 01/00 A3035 RMK A01 T00110004  RH  095%=      5-min Rain = 0
KCR1 071843Z 36011KT 01/00 A3035 RMK A01 T00100002  RH  094%=      5-min Rain = 0
KCR1 071844Z 35009KT 01/00 A3035 RMK A01 T00100002  RH  094%=      5-min Rain = 0
KCR1 071845Z 36010KT 01/00 A3034 RMK A01 T00100002  RH  094%=      5-min Rain = 0
KCR1 071846Z 35010KT 01/00 A3034 RMK A01 T00100002  RH  094%=      5-min Rain = 0
KCR1 071847Z 35011KT 01/00 A3034 RMK A01 T00100002  RH  094%=      5-min Rain = 0
KCR1 071848Z 35011KT 01/00 A3034 RMK A01 T00100002  RH  094%=      5-min Rain = 0
KCR1 071849Z 36010KT 01/00 A3034 RMK A01 T00100002  RH  094%=      5-min Rain = 0
KCR1 071850Z 36009KT 01/00 A3034 RMK A01 T00100002  RH  094%=      5-min Rain = 0
KCR1 071851Z 35010KT 01/00 A3034 RMK A01 T00110003  RH  095%=      5-min Rain = 0
KCR1 071852Z 35010KT 01/00 A3034 RMK A01 T00110003  RH  095%=      5-min Rain = 0
KCR1 071853Z 35011KT 01/00 A3034 RMK A01 T00100002  RH  094%=      5-min Rain = 0
KCR1 071854Z 35012KT 01/00 A3034 RMK A01 T00100001  RH  094%=      5-min Rain = 0
KCR1 071855Z 35010KT 01/00 A3034 RMK A01 T000900-0  RH  094%=      5-min Rain = 0
KCR1 071856Z 36010KT 01/00 A3033 RMK A01 T00100001  RH  094%=      5-min Rain = 0
KCR1 071857Z 36010KT 01/00 A3033 RMK A01 T00100002  RH  094%=      5-min Rain = 0
KCR1 071858Z 00010KT 01/00 A3033 RMK A01 T00100001  RH  094%=      5-min Rain = 0
KCR1 071859Z 36010KT 01/00 A3033 RMK A01 T00100002  RH  094%=      5-min Rain = 0
KCR1 071900Z 00009KT 01/00 A3033 RMK A01 T00100002  RH  094%=      5-min Rain = 0
KCR1 071901Z 36010KT 01/00 A3033 RMK A01 T00110003  RH  095%=      5-min Rain = 0.01
KCR1 071902Z 00010KT 01/00 A3033 RMK A01 T00110004  RH  095%=      5-min Rain = 0
KCR1 071903Z 01009KT 01/00 A3033 RMK A01 T00110004  RH  095%=      5-min Rain = 0
KCR1 071904Z 00008KT 01/00 A3033 RMK A01 T00110004  RH  095%=      5-min Rain = 0
KCR1 071905Z 00010KT 01/00 A3033 RMK A01 T00120004  RH  095%=      5-min Rain = 0
KCR1 071906Z 00010KT 01/00 A3033 RMK A01 T00110004  RH  095%=      5-min Rain = 0
KCR1 071907Z 01010KT 01/00 A3033 RMK A01 T00110002  RH  094%=      5-min Rain = 0
KCR1 071908Z 00011KT 01/00 A3033 RMK A01 T00100001  RH  094%=      5-min Rain = 0
KCR1 071909Z 00010KT 01/00 A3033 RMK A01 T00100001  RH  094%=      5-min Rain = 0
KCR1 071910Z 36010KT 01/00 A3033 RMK A01 T00100001  RH  094%=      5-min Rain = 0
KCR1 071911Z 36009KT 01/00 A3033 RMK A01 T00100001  RH  094%=      5-min Rain = 0
KCR1 071912Z 36008KT 01/00 A3033 RMK A01 T00100001  RH  094%=      5-min Rain = 0
KCR1 071913Z 00009KT 01/00 A3033 RMK A01 T00100002  RH  094%=      5-min Rain = 0
KCR1 071914Z 01008KT 01/00 A3033 RMK A01 T00100002  RH  094%=      5-min Rain = 0
KCR1 071915Z 01008KT 01/00 A3033 RMK A01 T00110003  RH  094%=      5-min Rain = 0
KCR1 071916Z 00009KT 01/00 A3033 RMK A01 T00110003  RH  094%=      5-min Rain = 0
KCR1 071917Z 00010KT 01/00 A3033 RMK A01 T00110002  RH  094%=      5-min Rain = 0
KCR1 071918Z 01008KT 01/00 A3033 RMK A01 T00110002  RH  094%=      5-min Rain = 0
KCR1 071919Z 00009KT 01/00 A3033 RMK A01 T00110002  RH  094%=      5-min Rain = 0
KCR1 071920Z 00009KT 01/00 A3033 RMK A01 T00100001  RH  094%=      5-min Rain = 0
KCR1 071921Z 01009KT 01/00 A3033 RMK A01 T00100001  RH  094%=      5-min Rain = 0
KCR1 071922Z 01009KT 01/00 A3033 RMK A01 T00110002  RH  094%=      5-min Rain = 0.01
KCR1 071923Z 00010KT 01/00 A3033 RMK A01 T00110001  RH  094%=      5-min Rain = 0
KCR1 071924Z 00009KT 01/00 A3033 RMK A01 T00100000  RH  093%=      5-min Rain = 0
KCR1 071925Z 00009KT 01/00 A3033 RMK A01 T00100001  RH  093%=      5-min Rain = 0
KCR1 071926Z 01008KT 01/00 A3033 RMK A01 T00100001  RH  093%=      5-min Rain = 0
KCR1 071927Z 00009KT 01/00 A3033 RMK A01 T00100001  RH  094%=      5-min Rain = 0
KCR1 071928Z 00009KT 01/00 A3033 RMK A01 T00100001  RH  094%=      5-min Rain = 0
KCR1 071929Z 01007KT 01/00 A3033 RMK A01 T00100001  RH  093%=      5-min Rain = 0
KCR1 071930Z 00008KT 01/00 A3033 RMK A01 T00100001  RH  094%=      5-min Rain = 0
KCR1 071931Z 35009KT 01/00 A3033 RMK A01 T00100001  RH  094%=      5-min Rain = 0.01
KCR1 071932Z 35008KT 01/00 A3033 RMK A01 T00100001  RH  093%=      5-min Rain = 0
KCR1 071933Z 36008KT 01/00 A3033 RMK A01 T00100001  RH  093%=      5-min Rain = 0
KCR1 071934Z 36007KT 01/00 A3033 RMK A01 T00100001  RH  094%=      5-min Rain = 0
KCR1 071935Z 01006KT 01/00 A3033 RMK A01 T00100001  RH  094%=      5-min Rain = 0
KCR1 071936Z 36008KT 01/00 A3033 RMK A01 T00100001  RH  094%=      5-min Rain = 0
KCR1 071937Z 35007KT 01/00 A3033 RMK A01 T00100002  RH  094%=      5-min Rain = 0
KCR1 071938Z 35008KT 01/00 A3033 RMK A01 T00100002  RH  094%=      5-min Rain = 0
KCR1 071939Z 36008KT 01/00 A3033 RMK A01 T00100001  RH  094%=      5-min Rain = 0
KCR1 071940Z 00008KT 01/00 A3033 RMK A01 T00100001  RH  094%=      5-min Rain = 0
KCR1 071941Z 00008KT 01/00 A3032 RMK A01 T00100001  RH  094%=      5-min Rain = 0
KCR1 071942Z 36008KT 01/00 A3032 RMK A01 T00100001  RH  094%=      5-min Rain = 0
KCR1 071943Z 00007KT 01/00 A3032 RMK A01 T00110002  RH  094%=      5-min Rain = 0
KCR1 071944Z 00008KT 01/00 A3032 RMK A01 T00110004  RH  095%=      5-min Rain = 0
KCR1 071945Z 00006KT 01/00 A3032 RMK A01 T00120004  RH  095%=      5-min Rain = 0
KCR1 071946Z 01007KT 01/00 A3032 RMK A01 T00120004  RH  095%=      5-min Rain = 0
KCR1 071947Z 01007KT 01/00 A3032 RMK A01 T00110004  RH  095%=      5-min Rain = 0.01
KCR1 071948Z 36008KT 01/00 A3032 RMK A01 T00120004  RH  095%=      5-min Rain = 0
KCR1 071949Z 01009KT 01/00 A3032 RMK A01 T00120004  RH  095%=      5-min Rain = 0
KCR1 071950Z 00009KT 01/00 A3032 RMK A01 T00120003  RH  094%=      5-min Rain = 0
KCR1 071951Z 00009KT 01/00 A3032 RMK A01 T00120003  RH  094%=      5-min Rain = 0
KCR1 071952Z 01008KT 01/00 A3032 RMK A01 T00120003  RH  094%=      5-min Rain = 0
KCR1 071953Z 01007KT 01/00 A3032 RMK A01 T00120003  RH  094%=      5-min Rain = 0
KCR1 071954Z 00007KT 01/00 A3032 RMK A01 T00120003  RH  094%=      5-min Rain = 0
KCR1 071955Z 01007KT 01/00 A3032 RMK A01 T00110003  RH  094%=      5-min Rain = 0
KCR1 071956Z 01008KT 01/00 A3032 RMK A01 T00120004  RH  095%=      5-min Rain = 0
KCR1 071957Z 01007KT 01/00 A3032 RMK A01 T00120004  RH  094%=      5-min Rain = 0
KCR1 071958Z 01007KT 01/00 A3032 RMK A01 T00120004  RH  094%=      5-min Rain = 0.01
KCR1 071959Z 00008KT 01/00 A3032 RMK A01 T00120004  RH  095%=      5-min Rain = 0
KCR1 072000Z 00009KT 01/00 A3032 RMK A01 T00120004  RH  094%=      5-min Rain = 0
KCR1 072001Z 36009KT 01/00 A3032 RMK A01 T00120004  RH  094%=      5-min Rain = 0
KCR1 072002Z 00008KT 01/00 A3032 RMK A01 T00120004  RH  094%=      5-min Rain = 0
KCR1 072003Z 36009KT 01/00 A3031 RMK A01 T00120004  RH  095%=      5-min Rain = 0
KCR1 072004Z 36008KT 01/00 A3031 RMK A01 T00120004  RH  094%=      5-min Rain = 0
KCR1 072005Z 01009KT 01/00 A3031 RMK A01 T00110003  RH  094%=      5-min Rain = 0
KCR1 072006Z 00008KT 01/00 A3031 RMK A01 T00120004  RH  094%=      5-min Rain = 0
KCR1 072007Z 36008KT 01/00 A3031 RMK A01 T00120004  RH  094%=      5-min Rain = 0
KCR1 072008Z 00008KT 01/00 A3031 RMK A01 T00120004  RH  095%=      5-min Rain = 0
KCR1 072009Z 01007KT 01/00 A3031 RMK A01 T00120004  RH  094%=      5-min Rain = 0
KCR1 072010Z 00008KT 01/00 A3031 RMK A01 T00120004  RH  094%=      5-min Rain = 0
KCR1 072011Z 01007KT 01/01 A3031 RMK A01 T00130005  RH  095%=      5-min Rain = 0
KCR1 072012Z 00006KT 01/01 A3031 RMK A01 T00130005  RH  095%=      5-min Rain = 0
KCR1 072013Z 36007KT 01/01 A3031 RMK A01 T00130006  RH  095%=      5-min Rain = 0
KCR1 072014Z 00009KT 01/01 A3031 RMK A01 T00140007  RH  095%=      5-min Rain = 0
KCR1 072015Z 00008KT 01/01 A3031 RMK A01 T00130006  RH  095%=      5-min Rain = 0.01
KCR1 072016Z 01008KT 01/01 A3031 RMK A01 T00130006  RH  095%=      5-min Rain = 0
KCR1 072017Z 01008KT 01/01 A3031 RMK A01 T00130006  RH  095%=      5-min Rain = 0
KCR1 072018Z 02008KT 01/01 A3031 RMK A01 T00130006  RH  095%=      5-min Rain = 0
KCR1 072019Z 02009KT 01/01 A303 RMK A01 T00130007  RH  095%=      5-min Rain = 0
KCR1 072020Z 01009KT 01/01 A303 RMK A01 T00130006  RH  095%=      5-min Rain = 0
KCR1 072021Z 01009KT 01/01 A303 RMK A01 T00140007  RH  095%=      5-min Rain = 0
KCR1 072022Z 00009KT 01/01 A303 RMK A01 T00130006  RH  095%=      5-min Rain = 0
KCR1 072023Z 01008KT 01/01 A303 RMK A01 T00130006  RH  095%=      5-min Rain = 0
KCR1 072024Z 01008KT 01/01 A303 RMK A01 T00130006  RH  095%=      5-min Rain = 0
KCR1 072025Z 00009KT 01/01 A3031 RMK A01 T00130007  RH  095%=      5-min Rain = 0
KCR1 072026Z 01009KT 01/01 A3031 RMK A01 T00140007  RH  095%=      5-min Rain = 0
KCR1 072027Z 01008KT 01/01 A3031 RMK A01 T00140007  RH  095%=      5-min Rain = 0
KCR1 072028Z 01009KT 01/01 A3031 RMK A01 T00130007  RH  096%=      5-min Rain = 0
KCR1 072029Z 01009KT 01/01 A3031 RMK A01 T00130007  RH  096%=      5-min Rain = 0
KCR1 072030Z 01009KT 01/01 A3031 RMK A01 T00130007  RH  096%=      5-min Rain = 0
KCR1 072031Z 00009KT 01/01 A3031 RMK A01 T00130006  RH  095%=      5-min Rain = 0
KCR1 072032Z 00008KT 01/01 A3031 RMK A01 T00130006  RH  095%=      5-min Rain = 0.01
KCR1 072033Z 00009KT 01/01 A3031 RMK A01 T00130006  RH  095%=      5-min Rain = 0
KCR1 072034Z 01010KT 01/01 A3031 RMK A01 T00130007  RH  095%=      5-min Rain = 0
KCR1 072035Z 01008KT 01/01 A3031 RMK A01 T00130006  RH  095%=      5-min Rain = 0
KCR1 072036Z 00010KT 01/01 A3031 RMK A01 T00130007  RH  096%=      5-min Rain = 0
KCR1 072037Z 00009KT 01/01 A3031 RMK A01 T00130007  RH  096%=      5-min Rain = 0
KCR1 072038Z 01008KT 01/01 A3031 RMK A01 T00140007  RH  096%=      5-min Rain = 0.01
KCR1 072039Z 00009KT 01/01 A3031 RMK A01 T00140008  RH  096%=      5-min Rain = 0
KCR1 072040Z 00009KT 01/01 A3031 RMK A01 T00140008  RH  096%=      5-min Rain = 0
KCR1 072041Z 36009KT 01/01 A3031 RMK A01 T00140008  RH  096%=      5-min Rain = 0
KCR1 072042Z 00009KT 01/01 A3031 RMK A01 T00140008  RH  096%=      5-min Rain = 0
KCR1 072043Z 00010KT 01/01 A3031 RMK A01 T00140007  RH  095%=      5-min Rain = 0.01
KCR1 072044Z 01010KT 01/01 A3031 RMK A01 T00130007  RH  095%=      5-min Rain = 0
KCR1 072045Z 00009KT 01/01 A3031 RMK A01 T00130006  RH  095%=      5-min Rain = 0
KCR1 072046Z 36009KT 01/01 A3032 RMK A01 T00140007  RH  095%=      5-min Rain = 0
KCR1 072047Z 35009KT 01/01 A3032 RMK A01 T00140008  RH  095%=      5-min Rain = 0
KCR1 072048Z 36010KT 01/01 A3032 RMK A01 T00140008  RH  095%=      5-min Rain = 0
KCR1 072049Z 35010KT 01/01 A3032 RMK A01 T00140008  RH  095%=      5-min Rain = 0
KCR1 072050Z 36009KT 01/01 A3032 RMK A01 T00140008  RH  095%=      5-min Rain = 0.01
KCR1 072051Z 36009KT 02/01 A3032 RMK A01 T00150008  RH  095%=      5-min Rain = 0
KCR1 072052Z 00010KT 01/01 A3032 RMK A01 T00140007  RH  095%=      5-min Rain = 0
KCR1 072053Z 36008KT 01/01 A3032 RMK A01 T00140007  RH  095%=      5-min Rain = 0
KCR1 072054Z 00010KT 01/01 A3032 RMK A01 T00140007  RH  095%=      5-min Rain = 0
KCR1 072055Z 36009KT 01/01 A3032 RMK A01 T00140007  RH  095%=      5-min Rain = 0
KCR1 072056Z 00009KT 01/01 A3032 RMK A01 T00140007  RH  095%=      5-min Rain = 0
KCR1 072057Z 00008KT 01/01 A3032 RMK A01 T00140007  RH  095%=      5-min Rain = 0
KCR1 072058Z 36009KT 01/01 A3032 RMK A01 T00140008  RH  095%=      5-min Rain = 0
KCR1 072059Z 36008KT 01/01 A3032 RMK A01 T00140008  RH  095%=      5-min Rain = 0
KCR1 072100Z 36008KT 01/01 A3032 RMK A01 T00140008  RH  095%=      5-min Rain = 0
KCR1 072101Z 36007KT 02/01 A3032 RMK A01 T00150008  RH  096%=      5-min Rain = 0
KCR1 072102Z 36007KT 02/01 A3032 RMK A01 T00150009  RH  096%=      5-min Rain = 0
KCR1 072103Z 36007KT 02/01 A3032 RMK A01 T00150009  RH  096%=      5-min Rain = 0
KCR1 072104Z 36007KT 02/01 A3032 RMK A01 T00150010  RH  096%=      5-min Rain = 0
KCR1 072105Z 36006KT 02/01 A3032 RMK A01 T00150010  RH  096%=      5-min Rain = 0
KCR1 072106Z 00008KT 02/01 A3032 RMK A01 T00150010  RH  096%=      5-min Rain = 0
KCR1 072107Z 36008KT 01/01 A3032 RMK A01 T00140008  RH  096%=      5-min Rain = 0
KCR1 072108Z 00009KT 01/01 A3032 RMK A01 T00140008  RH  095%=      5-min Rain = 0
KCR1 072109Z 01008KT 02/01 A3032 RMK A01 T00150008  RH  095%=      5-min Rain = 0.01
KCR1 072110Z 01007KT 01/01 A3032 RMK A01 T00140008  RH  095%=      5-min Rain = 0
KCR1 072111Z 36008KT 02/01 A3032 RMK A01 T00150008  RH  095%=      5-min Rain = 0
KCR1 072112Z 00006KT 01/01 A3032 RMK A01 T00140008  RH  096%=      5-min Rain = 0
KCR1 072113Z 01008KT 02/01 A3032 RMK A01 T00150009  RH  096%=      5-min Rain = 0
KCR1 072114Z 01008KT 02/01 A3032 RMK A01 T00150009  RH  096%=      5-min Rain = 0
KCR1 072115Z 01009KT 01/01 A3032 RMK A01 T00140008  RH  095%=      5-min Rain = 0
KCR1 072116Z 00009KT 01/01 A3032 RMK A01 T00140008  RH  095%=      5-min Rain = 0
KCR1 072117Z 36009KT 01/01 A3032 RMK A01 T00140007  RH  095%=      5-min Rain = 0
KCR1 072118Z 36008KT 01/01 A3032 RMK A01 T00140007  RH  095%=      5-min Rain = 0
KCR1 072119Z 36007KT 01/01 A3032 RMK A01 T00140007  RH  095%=      5-min Rain = 0
KCR1 072120Z 36008KT 01/01 A3032 RMK A01 T00140007  RH  095%=      5-min Rain = 0
KCR1 072121Z 35009KT 01/01 A3032 RMK A01 T00140008  RH  095%=      5-min Rain = 0
KCR1 072122Z 36009KT 01/01 A3033 RMK A01 T00140008  RH  095%=      5-min Rain = 0
KCR1 072123Z 36008KT 01/01 A3032 RMK A01 T00140007  RH  095%=      5-min Rain = 0.01
KCR1 072124Z 01007KT 01/01 A3032 RMK A01 T00140008  RH  095%=      5-min Rain = 0
KCR1 072125Z 01007KT 02/01 A3032 RMK A01 T00150009  RH  096%=      5-min Rain = 0
KCR1 072126Z 00008KT 02/01 A3032 RMK A01 T00150009  RH  096%=      5-min Rain = 0.01
KCR1 072127Z 00009KT 01/01 A3032 RMK A01 T00140008  RH  096%=      5-min Rain = 0
KCR1 072128Z 36009KT 01/01 A3032 RMK A01 T00140008  RH  096%=      5-min Rain = 0
KCR1 072129Z 01009KT 01/01 A3032 RMK A01 T00140008  RH  096%=      5-min Rain = 0
KCR1 072130Z 00008KT 01/01 A3032 RMK A01 T00140008  RH  096%=      5-min Rain = 0.01
KCR1 072131Z 00007KT 01/01 A3032 RMK A01 T00140008  RH  096%=      5-min Rain = 0
KCR1 072132Z 00009KT 01/01 A3032 RMK A01 T00140009  RH  096%=      5-min Rain = 0
KCR1 072133Z 01009KT 01/01 A3032 RMK A01 T00140009  RH  096%=      5-min Rain = 0
KCR1 072134Z 01010KT 01/01 A3032 RMK A01 T00140008  RH  096%=      5-min Rain = 0
KCR1 072135Z 00010KT 01/01 A3032 RMK A01 T00140008  RH  096%=      5-min Rain = 0
KCR1 072136Z 01010KT 01/01 A3032 RMK A01 T00140008  RH  096%=      5-min Rain = 0
KCR1 072137Z 01009KT 01/01 A3032 RMK A01 T00140008  RH  096%=      5-min Rain = 0
KCR1 072138Z 01009KT 01/01 A3032 RMK A01 T00140008  RH  096%=      5-min Rain = 0
KCR1 072139Z 01010KT 01/01 A3032 RMK A01 T00140009  RH  096%=      5-min Rain = 0
KCR1 072140Z 01009KT 01/01 A3032 RMK A01 T00140009  RH  096%=      5-min Rain = 0
KCR1 072141Z 01009KT 01/01 A3032 RMK A01 T00140008  RH  096%=      5-min Rain = 0
KCR1 072142Z 01009KT 01/01 A3032 RMK A01 T00140008  RH  096%=      5-min Rain = 0
KCR1 072143Z 01008KT 01/01 A3032 RMK A01 T00140008  RH  096%=      5-min Rain = 0.01
KCR1 072144Z 01009KT 01/01 A3032 RMK A01 T00140009  RH  096%=      5-min Rain = 0
KCR1 072145Z 01010KT 01/01 A3032 RMK A01 T00140009  RH  096%=      5-min Rain = 0
KCR1 072146Z 01009KT 01/01 A3032 RMK A01 T00140008  RH  096%=      5-min Rain = 0
KCR1 072147Z 01010KT 01/01 A3032 RMK A01 T00140009  RH  096%=      5-min Rain = 0
KCR1 072148Z 01010KT 01/01 A3032 RMK A01 T00140008  RH  096%=      5-min Rain = 0
KCR1 072149Z 01009KT 01/01 A3032 RMK A01 T00140008  RH  096%=      5-min Rain = 0
KCR1 072150Z 00009KT 01/01 A3032 RMK A01 T00140008  RH  096%=      5-min Rain = 0
KCR1 072151Z 01010KT 01/01 A3032 RMK A01 T00140009  RH  096%=      5-min Rain = 0
KCR1 072152Z 01010KT 01/01 A3032 RMK A01 T00140008  RH  096%=      5-min Rain = 0.01
KCR1 072153Z 00010KT 01/01 A3032 RMK A01 T00140008  RH  096%=      5-min Rain = 0
KCR1 072154Z 00009KT 01/01 A3032 RMK A01 T00140008  RH  096%=      5-min Rain = 0
KCR1 072155Z 01009KT 01/01 A3032 RMK A01 T00130008  RH  096%=      5-min Rain = 0
KCR1 072156Z 01008KT 01/01 A3032 RMK A01 T00130008  RH  096%=      5-min Rain = 0
KCR1 072157Z 01008KT 01/01 A3032 RMK A01 T00130008  RH  096%=      5-min Rain = 0
KCR1 072158Z 01007KT 01/01 A3032 RMK A01 T00130008  RH  096%=      5-min Rain = 0.01
KCR1 072159Z 02008KT 01/01 A3032 RMK A01 T00140009  RH  097%=      5-min Rain = 0
KCR1 072200Z 01008KT 01/01 A3032 RMK A01 T00140009  RH  097%=      5-min Rain = 0
KCR1 072201Z 01009KT 01/01 A3032 RMK A01 T00140009  RH  097%=      5-min Rain = 0
KCR1 072202Z 01009KT 01/01 A3032 RMK A01 T00140009  RH  097%=      5-min Rain = 0
KCR1 072203Z 01009KT 01/01 A3032 RMK A01 T00140009  RH  097%=      5-min Rain = 0
KCR1 072204Z 01010KT 01/01 A3032 RMK A01 T00130008  RH  097%=      5-min Rain = 0
KCR1 072205Z 01010KT 01/01 A3032 RMK A01 T00130008  RH  097%=      5-min Rain = 0
KCR1 072206Z 01008KT 01/01 A3032 RMK A01 T00130008  RH  096%=      5-min Rain = 0
KCR1 072207Z 01010KT 01/01 A3032 RMK A01 T00130008  RH  096%=      5-min Rain = 0
KCR1 072208Z 01010KT 01/01 A3032 RMK A01 T00130007  RH  096%=      5-min Rain = 0
KCR1 072209Z 01011KT 01/01 A3033 RMK A01 T00130008  RH  096%=      5-min Rain = 0
KCR1 072210Z 01010KT 01/01 A3033 RMK A01 T00130007  RH  096%=      5-min Rain = 0
KCR1 072211Z 01008KT 01/01 A3033 RMK A01 T00120007  RH  096%=      5-min Rain = 0
KCR1 072212Z 01008KT 01/01 A3033 RMK A01 T00130008  RH  096%=      5-min Rain = 0
KCR1 072213Z 01009KT 01/01 A3033 RMK A01 T00130008  RH  096%=      5-min Rain = 0
KCR1 072214Z 01009KT 01/01 A3032 RMK A01 T00130008  RH  096%=      5-min Rain = 0.01
KCR1 072215Z 01008KT 01/01 A3032 RMK A01 T00130008  RH  096%=      5-min Rain = 0
KCR1 072216Z 01008KT 01/01 A3032 RMK A01 T00130008  RH  096%=      5-min Rain = 0
KCR1 072217Z 01008KT 01/01 A3032 RMK A01 T00130008  RH  097%=      5-min Rain = 0
KCR1 072218Z 01009KT 01/01 A3032 RMK A01 T00130009  RH  097%=      5-min Rain = 0
KCR1 072219Z 01008KT 01/01 A3033 RMK A01 T00130008  RH  097%=      5-min Rain = 0
KCR1 072220Z 01008KT 01/01 A3033 RMK A01 T00130008  RH  097%=      5-min Rain = 0
KCR1 072221Z 01008KT 01/01 A3033 RMK A01 T00130008  RH  096%=      5-min Rain = 0
KCR1 072222Z 01008KT 01/01 A3033 RMK A01 T00130008  RH  097%=      5-min Rain = 0
KCR1 072223Z 02007KT 01/01 A3033 RMK A01 T00130008  RH  097%=      5-min Rain = 0
KCR1 072224Z 02007KT 01/01 A3033 RMK A01 T00130009  RH  097%=      5-min Rain = 0
KCR1 072225Z 02008KT 01/01 A3033 RMK A01 T00140009  RH  097%=      5-min Rain = 0
KCR1 072226Z 02009KT 01/01 A3033 RMK A01 T00130009  RH  097%=      5-min Rain = 0
KCR1 072227Z 02008KT 01/01 A3032 RMK A01 T00130008  RH  097%=      5-min Rain = 0
KCR1 072228Z 01007KT 01/01 A3032 RMK A01 T00130008  RH  097%=      5-min Rain = 0
KCR1 072229Z 01009KT 01/01 A3032 RMK A01 T00130009  RH  097%=      5-min Rain = 0
KCR1 072230Z 02008KT 01/01 A3033 RMK A01 T00130009  RH  097%=      5-min Rain = 0
KCR1 072231Z 01007KT 01/01 A3032 RMK A01 T00140009  RH  097%=      5-min Rain = 0
KCR1 072232Z 00008KT 01/01 A3032 RMK A01 T00140009  RH  097%=      5-min Rain = 0
KCR1 072233Z 01010KT 01/01 A3032 RMK A01 T00130009  RH  097%=      5-min Rain = 0.01
KCR1 072234Z 01009KT 01/01 A3032 RMK A01 T00130008  RH  097%=      5-min Rain = 0
KCR1 072235Z 01011KT 01/01 A3032 RMK A01 T00130008  RH  097%=      5-min Rain = 0
KCR1 072236Z 01012KT 01/01 A3032 RMK A01 T00130008  RH  097%=      5-min Rain = 0
KCR1 072237Z 01012KT 01/01 A3032 RMK A01 T00130007  RH  096%=      5-min Rain = 0
KCR1 072238Z 01012KT 01/01 A3032 RMK A01 T00120006  RH  096%=      5-min Rain = 0
KCR1 072239Z 01012KT 01/01 A3032 RMK A01 T00120006  RH  096%=      5-min Rain = 0
KCR1 072240Z 01012KT 01/01 A3032 RMK A01 T00120005  RH  095%=      5-min Rain = 0
KCR1 072241Z 01012KT 01/01 A3032 RMK A01 T00120005  RH  095%=      5-min Rain = 0
KCR1 072242Z 01012KT 01/01 A3032 RMK A01 T00110005  RH  095%=      5-min Rain = 0
KCR1 072243Z 01011KT 01/01 A3032 RMK A01 T00120005  RH  095%=      5-min Rain = 0
KCR1 072244Z 00010KT 01/01 A3032 RMK A01 T00120005  RH  095%=      5-min Rain = 0
KCR1 072245Z 00012KT 01/01 A3032 RMK A01 T00120005  RH  095%=      5-min Rain = 0
KCR1 072246Z 00011KT 01/01 A3032 RMK A01 T00120005  RH  095%=      5-min Rain = 0
KCR1 072247Z 01011KT 01/01 A3032 RMK A01 T00120005  RH  095%=      5-min Rain = 0
KCR1 072248Z 00010KT 01/01 A3032 RMK A01 T00110005  RH  096%=      5-min Rain = 0
KCR1 072249Z 01011KT 01/01 A3032 RMK A01 T00110005  RH  096%=      5-min Rain = 0
KCR1 072250Z 00010KT 01/01 A3032 RMK A01 T00110005  RH  096%=      5-min Rain = 0
KCR1 072251Z 01010KT 01/01 A3032 RMK A01 T00110005  RH  096%=      5-min Rain = 0
KCR1 072252Z 01010KT 01/01 A3032 RMK A01 T00110005  RH  096%=      5-min Rain = 0.01
KCR1 072253Z 01010KT 01/01 A3032 RMK A01 T00120006  RH  096%=      5-min Rain = 0
KCR1 072254Z 01010KT 01/01 A3032 RMK A01 T00110006  RH  097%=      5-min Rain = 0
KCR1 072255Z 00011KT 01/01 A3032 RMK A01 T00120007  RH  097%=      5-min Rain = 0
KCR1 072256Z 01010KT 01/01 A3032 RMK A01 T00120007  RH  097%=      5-min Rain = 0
KCR1 072257Z 01010KT 01/01 A3032 RMK A01 T00120007  RH  097%=      5-min Rain = 0
KCR1 072258Z 01011KT 01/01 A3032 RMK A01 T00120007  RH  097%=      5-min Rain = 0
KCR1 072259Z 01012KT 01/01 A3032 RMK A01 T00110007  RH  097%=      5-min Rain = 0
KCR1 072300Z 01011KT 01/01 A3032 RMK A01 T00120007  RH  097%=      5-min Rain = 0
KCR1 072301Z 00010KT 01/01 A3032 RMK A01 T00110006  RH  096%=      5-min Rain = 0
KCR1 072302Z 01010KT 01/01 A3032 RMK A01 T00110006  RH  097%=      5-min Rain = 0
KCR1 072303Z 01009KT 01/01 A3032 RMK A01 T00110006  RH  097%=      5-min Rain = 0
KCR1 072304Z 02010KT 01/01 A3032 RMK A01 T00110007  RH  097%=      5-min Rain = 0
KCR1 072305Z 01011KT 01/01 A3032 RMK A01 T00120007  RH  097%=      5-min Rain = 0.01
KCR1 072306Z 01011KT 01/01 A3032 RMK A01 T00120007  RH  097%=      5-min Rain = 0
KCR1 072307Z 01013KT 01/01 A3032 RMK A01 T00110006  RH  096%=      5-min Rain = 0
KCR1 072308Z 01011KT 01/01 A3032 RMK A01 T00110006  RH  096%=      5-min Rain = 0
KCR1 072309Z 01011KT 01/01 A3032 RMK A01 T00110006  RH  096%=      5-min Rain = 0
KCR1 072310Z 01011KT 01/01 A3032 RMK A01 T00110006  RH  096%=      5-min Rain = 0
KCR1 072311Z 02010KT 01/01 A3032 RMK A01 T00110006  RH  097%=      5-min Rain = 0
KCR1 072312Z 02012KT 01/01 A3031 RMK A01 T00120007  RH  097%=      5-min Rain = 0
KCR1 072313Z 02011KT 01/01 A3031 RMK A01 T00110006  RH  097%=      5-min Rain = 0
KCR1 072314Z 02010KT 01/01 A3031 RMK A01 T00110006  RH  097%=      5-min Rain = 0
KCR1 072315Z 01011KT 01/01 A3031 RMK A01 T00110007  RH  097%=      5-min Rain = 0
KCR1 072316Z 01011KT 01/01 A3031 RMK A01 T00110006  RH  097%=      5-min Rain = 0
KCR1 072317Z 02010KT 01/01 A3031 RMK A01 T00110006  RH  097%=      5-min Rain = 0
KCR1 072318Z 02011KT 01/01 A3031 RMK A01 T00110007  RH  097%=      5-min Rain = 0
KCR1 072319Z 01011KT 01/01 A3031 RMK A01 T00110006  RH  097%=      5-min Rain = 0
KCR1 072320Z 01011KT 01/01 A3031 RMK A01 T00110006  RH  097%=      5-min Rain = 0
KCR1 072321Z 01009KT 01/01 A3031 RMK A01 T00110006  RH  097%=      5-min Rain = 0
KCR1 072322Z 01012KT 01/01 A3031 RMK A01 T00110006  RH  097%=      5-min Rain = 0
KCR1 072323Z 01012KT 01/01 A3031 RMK A01 T00110006  RH  097%=      5-min Rain = 0
KCR1 072324Z 01010KT 01/01 A3031 RMK A01 T00110007  RH  097%=      5-min Rain = 0.01
KCR1 072325Z 02010KT 01/01 A3031 RMK A01 T00110007  RH  097%=      5-min Rain = 0
KCR1 072326Z 01010KT 01/01 A3031 RMK A01 T00110007  RH  097%=      5-min Rain = 0
KCR1 072327Z 01011KT 01/01 A3031 RMK A01 T00110007  RH  097%=      5-min Rain = 0
KCR1 072328Z 01010KT 01/01 A3031 RMK A01 T00110007  RH  097%=      5-min Rain = 0
KCR1 072329Z 01010KT 01/01 A3031 RMK A01 T00110007  RH  097%=      5-min Rain = 0
KCR1 072330Z 01013KT 01/01 A3031 RMK A01 T00110007  RH  097%=      5-min Rain = 0
KCR1 072331Z 01011KT 01/01 A3031 RMK A01 T00100007  RH  097%=      5-min Rain = 0
KCR1 072332Z 01012KT 01/01 A3031 RMK A01 T00100006  RH  097%=      5-min Rain = 0
KCR1 072333Z 01011KT 01/01 A3031 RMK A01 T00100006  RH  097%=      5-min Rain = 0
KCR1 072334Z 01011KT 01/01 A3031 RMK A01 T00100006  RH  097%=      5-min Rain = 0
KCR1 072335Z 01011KT 01/01 A3031 RMK A01 T00100006  RH  097%=      5-min Rain = 0
KCR1 072336Z 01011KT 01/01 A3031 RMK A01 T00100006  RH  097%=      5-min Rain = 0
KCR1 072337Z 01010KT 01/01 A3032 RMK A01 T00110007  RH  097%=      5-min Rain = 0
KCR1 072338Z 01011KT 01/01 A3032 RMK A01 T00100006  RH  097%=      5-min Rain = 0
KCR1 072339Z 01011KT 01/01 A3032 RMK A01 T00110007  RH  097%=      5-min Rain = 0
KCR1 072340Z 01009KT 01/01 A3031 RMK A01 T00110007  RH  097%=      5-min Rain = 0
KCR1 072341Z 02010KT 01/01 A3031 RMK A01 T00110007  RH  097%=      5-min Rain = 0
KCR1 072342Z 02011KT 01/01 A3031 RMK A01 T00110007  RH  097%=      5-min Rain = 0
KCR1 072343Z 02010KT 01/01 A3031 RMK A01 T00110007  RH  097%=      5-min Rain = 0
KCR1 072344Z 02010KT 01/01 A3031 RMK A01 T00110008  RH  097%=      5-min Rain = 0
KCR1 072345Z 03011KT 01/01 A3031 RMK A01 T00110007  RH  097%=      5-min Rain = 0
KCR1 072346Z 03011KT 01/01 A303 RMK A01 T00110007  RH  097%=      5-min Rain = 0
KCR1 072347Z 04012KT 01/01 A303 RMK A01 T00110007  RH  097%=      5-min Rain = 0
KCR1 072348Z 03011KT 01/01 A303 RMK A01 T00110007  RH  097%=      5-min Rain = 0
KCR1 072349Z 03011KT 01/01 A303 RMK A01 T00110007  RH  097%=      5-min Rain = 0
KCR1 072350Z 03012KT 01/01 A303 RMK A01 T00110007  RH  097%=      5-min Rain = 0
KCR1 072351Z 03010KT 01/01 A3031 RMK A01 T00110007  RH  097%=      5-min Rain = 0
KCR1 072352Z 03009KT 01/01 A3031 RMK A01 T00110007  RH  097%=      5-min Rain = 0
KCR1 072353Z 02010KT 01/01 A3031 RMK A01 T00110007  RH  097%=      5-min Rain = 0
KCR1 072354Z 02009KT 01/01 A3031 RMK A01 T00110007  RH  097%=      5-min Rain = 0
KCR1 072355Z 03009KT 01/01 A3031 RMK A01 T00110007  RH  097%=      5-min Rain = 0
KCR1 072356Z 03010KT 01/01 A3032 RMK A01 T00110007  RH  097%=      5-min Rain = 0
KCR1 072357Z 02009KT 01/01 A3032 RMK A01 T00110007  RH  097%=      5-min Rain = 0
KCR1 072358Z 02009KT 01/01 A3032 RMK A01 T00110007  RH  097%=      5-min Rain = 0
KCR1 072359Z 02009KT 01/01 A3032 RMK A01 T00110007  RH  097%=      5-min Rain = 0
KCR1 080000Z 02011KT 01/01 A3032 RMK A01 T00110007  RH  097%=      5-min Rain = 0
KCR1 080001Z 02011KT 01/01 A3032 RMK A01 T00110007  RH  097%=      5-min Rain = 0
KCR1 080002Z 02011KT 01/01 A3032 RMK A01 T00110007  RH  097%=      5-min Rain = 0
KCR1 080003Z 02010KT 01/01 A3033 RMK A01 T00110006  RH  097%=      5-min Rain = 0
KCR1 080004Z 02011KT 01/01 A3033 RMK A01 T00110007  RH  097%=      5-min Rain = 0
KCR1 080005Z 02010KT 01/01 A3033 RMK A01 T00110007  RH  097%=      5-min Rain = 0
KCR1 080006Z 02009KT 01/01 A3033 RMK A01 T00110007  RH  097%=      5-min Rain = 0
KCR1 080007Z 02011KT 01/01 A3033 RMK A01 T00110007  RH  097%=      5-min Rain = 0
KCR1 080008Z 02012KT 01/01 A3033 RMK A01 T00110006  RH  097%=      5-min Rain = 0.01
KCR1 080009Z 02012KT 01/01 A3033 RMK A01 T00100006  RH  097%=      5-min Rain = 0
KCR1 080010Z 02011KT 01/01 A3033 RMK A01 T00110006  RH  097%=      5-min Rain = 0
KCR1 080011Z 02010KT 01/01 A3033 RMK A01 T00110006  RH  097%=      5-min Rain = 0
KCR1 080012Z 02011KT 01/01 A3033 RMK A01 T00110006  RH  096%=      5-min Rain = 0
KCR1 080013Z 01010KT 01/01 A3033 RMK A01 T00110006  RH  097%=      5-min Rain = 0
KCR1 080014Z 02011KT 01/01 A3033 RMK A01 T00110006  RH  097%=      5-min Rain = 0
KCR1 080015Z 01009KT 01/01 A3033 RMK A01 T00110006  RH  097%=      5-min Rain = 0
KCR1 080016Z 02010KT 01/01 A3033 RMK A01 T00110006  RH  097%=      5-min Rain = 0
KCR1 080017Z 01011KT 01/01 A3033 RMK A01 T00110006  RH  097%=      5-min Rain = 0
KCR1 080018Z 02011KT 01/01 A3033 RMK A01 T00110006  RH  097%=      5-min Rain = 0
KCR1 080019Z 02012KT 01/01 A3033 RMK A01 T00110006  RH  097%=      5-min Rain = 0
KCR1 080020Z 02011KT 01/01 A3033 RMK A01 T00110006  RH  096%=      5-min Rain = 0
KCR1 080021Z 01012KT 01/01 A3033 RMK A01 T00110006  RH  096%=      5-min Rain = 0
KCR1 080022Z 01012KT 01/01 A3033 RMK A01 T00110006  RH  096%=      5-min Rain = 0
KCR1 080023Z 02011KT 01/01 A3033 RMK A01 T00110006  RH  096%=      5-min Rain = 0
KCR1 080024Z 01012KT 01/01 A3033 RMK A01 T00110006  RH  097%=      5-min Rain = 0
KCR1 080025Z 02012KT 01/01 A3033 RMK A01 T00110006  RH  097%=      5-min Rain = 0
KCR1 080026Z 02012KT 01/01 A3033 RMK A01 T00110006  RH  097%=      5-min Rain = 0
KCR1 080027Z 02012KT 01/01 A3033 RMK A01 T00110006  RH  097%=      5-min Rain = 0
KCR1 080028Z 02012KT 01/01 A3033 RMK A01 T00110006  RH  097%=      5-min Rain = 0
KCR1 080029Z 02011KT 01/01 A3033 RMK A01 T00100006  RH  097%=      5-min Rain = 0
KCR1 080030Z 02012KT 01/01 A3033 RMK A01 T00110006  RH  097%=      5-min Rain = 0
KCR1 080031Z 02011KT 01/01 A3033 RMK A01 T00110006  RH  097%=      5-min Rain = 0.01
KCR1 080032Z 02010KT 01/01 A3033 RMK A01 T00110007  RH  097%=      5-min Rain = 0
KCR1 080033Z 02012KT 01/01 A3033 RMK A01 T00110007  RH  097%=      5-min Rain = 0
KCR1 080034Z 02011KT 01/01 A3033 RMK A01 T00110007  RH  097%=      5-min Rain = 0
KCR1 080035Z 02011KT 01/01 A3033 RMK A01 T00110007  RH  097%=      5-min Rain = 0
KCR1 080036Z 02010KT 01/01 A3033 RMK A01 T00110007  RH  097%=      5-min Rain = 0
KCR1 080037Z 02012KT 01/01 A3033 RMK A01 T00110007  RH  097%=      5-min Rain = 0
KCR1 080038Z 02012KT 01/01 A3033 RMK A01 T00110008  RH  098%=      5-min Rain = 0
KCR1 080039Z 03010KT 01/01 A3033 RMK A01 T00110008  RH  098%=      5-min Rain = 0
KCR1 080040Z 03009KT 01/01 A3033 RMK A01 T00110008  RH  098%=      5-min Rain = 0.01
KCR1 080041Z 03010G15KT 01/01 A3033 RMK A01 T00110008  RH  098%=      5-min Rain = 0
KCR1 080042Z 03014KT 01/01 A3033 RMK A01 T00110008  RH  098%=      5-min Rain = 0
KCR1 080043Z 03014KT 01/01 A3033 RMK A01 T00100007  RH  098%=      5-min Rain = 0
KCR1 080044Z 03012KT 01/01 A3033 RMK A01 T00090006  RH  098%=      5-min Rain = 0
KCR1 080045Z 03012KT 01/01 A3033 RMK A01 T00090006  RH  098%=      5-min Rain = 0
KCR1 080046Z 03012KT 01/01 A3033 RMK A01 T00100006  RH  098%=      5-min Rain = 0
KCR1 080047Z 03013KT 01/01 A3033 RMK A01 T00090006  RH  097%=      5-min Rain = 0.01
KCR1 080048Z 03013KT 01/01 A3033 RMK A01 T00090006  RH  097%=      5-min Rain = 0
KCR1 080049Z 03012KT 01/01 A3033 RMK A01 T00090005  RH  097%=      5-min Rain = 0
KCR1 080050Z 03012KT 01/01 A3033 RMK A01 T00090005  RH  097%=      5-min Rain = 0
KCR1 080051Z 03011KT 01/01 A3033 RMK A01 T00090005  RH  097%=      5-min Rain = 0
KCR1 080052Z 03011KT 01/01 A3033 RMK A01 T00090005  RH  097%=      5-min Rain = 0
KCR1 080053Z 03012KT 01/01 A3033 RMK A01 T00090006  RH  097%=      5-min Rain = 0.01
KCR1 080054Z 03012KT 01/01 A3033 RMK A01 T00090006  RH  098%=      5-min Rain = 0
KCR1 080055Z 03012KT 01/01 A3033 RMK A01 T00090006  RH  098%=      5-min Rain = 0
KCR1 080056Z 03010KT 01/01 A3033 RMK A01 T00090006  RH  097%=      5-min Rain = 0
KCR1 080057Z 03011KT 01/01 A3033 RMK A01 T00100006  RH  098%=      5-min Rain = 0
KCR1 080058Z 03011KT 01/01 A3033 RMK A01 T00100006  RH  098%=      5-min Rain = 0
KCR1 080059Z 03011KT 01/01 A3033 RMK A01 T00100006  RH  098%=      5-min Rain = 0
KCR1 080100Z 03011KT 01/01 A3033 RMK A01 T00100006  RH  098%=      5-min Rain = 0
KCR1 080101Z 03011KT 01/01 A3033 RMK A01 T00100007  RH  098%=      5-min Rain = 0
KCR1 080102Z 03010KT 01/01 A3033 RMK A01 T00100006  RH  098%=      5-min Rain = 0
KCR1 080103Z 03010KT 01/01 A3033 RMK A01 T00100006  RH  098%=      5-min Rain = 0
KCR1 080104Z 03013KT 01/01 A3033 RMK A01 T00100007  RH  098%=      5-min Rain = 0
KCR1 080105Z 03012KT 01/01 A3033 RMK A01 T00100006  RH  098%=      5-min Rain = 0
KCR1 080106Z 02011KT 01/01 A3033 RMK A01 T00100006  RH  098%=      5-min Rain = 0
KCR1 080107Z 03014KT 01/01 A3033 RMK A01 T00100006  RH  097%=      5-min Rain = 0
KCR1 080108Z 03014KT 01/01 A3033 RMK A01 T00090005  RH  097%=      5-min Rain = 0
KCR1 080109Z 02015KT 01/00 A3033 RMK A01 T00090004  RH  097%=      5-min Rain = 0
KCR1 080110Z 02011KT 01/00 A3033 RMK A01 T00090003  RH  096%=      5-min Rain = 0
KCR1 080111Z 02012KT 01/00 A3033 RMK A01 T00080003  RH  096%=      5-min Rain = 0
KCR1 080112Z 02013KT 01/00 A3033 RMK A01 T00080002  RH  096%=      5-min Rain = 0
KCR1 080113Z 02012KT 01/00 A3034 RMK A01 T00080002  RH  096%=      5-min Rain = 0
KCR1 080114Z 02012KT 01/00 A3034 RMK A01 T00080002  RH  096%=      5-min Rain = 0
KCR1 080115Z 02011KT 01/00 A3034 RMK A01 T00080002  RH  096%=      5-min Rain = 0
KCR1 080116Z 02013KT 01/00 A3033 RMK A01 T00080002  RH  096%=      5-min Rain = 0
KCR1 080117Z 02013KT 01/00 A3033 RMK A01 T00080002  RH  096%=      5-min Rain = 0
KCR1 080118Z 02011KT 01/00 A3033 RMK A01 T00080002  RH  096%=      5-min Rain = 0
KCR1 080119Z 02012KT 01/00 A3033 RMK A01 T00090002  RH  096%=      5-min Rain = 0
KCR1 080120Z 02012KT 01/00 A3033 RMK A01 T00080002  RH  096%=      5-min Rain = 0
KCR1 080121Z 02012KT 01/00 A3033 RMK A01 T00080002  RH  096%=      5-min Rain = 0
KCR1 080122Z 02013KT 01/00 A3033 RMK A01 T00080002  RH  096%=      5-min Rain = 0
KCR1 080123Z 02012KT 01/00 A3033 RMK A01 T00080002  RH  096%=      5-min Rain = 0.01
KCR1 080124Z 02012KT 01/00 A3033 RMK A01 T00080002  RH  096%=      5-min Rain = 0
KCR1 080125Z 03013KT 01/00 A3033 RMK A01 T00080002  RH  096%=      5-min Rain = 0
KCR1 080126Z 03014KT 01/00 A3033 RMK A01 T00080002  RH  096%=      5-min Rain = 0
KCR1 080127Z 03011KT 01/00 A3033 RMK A01 T00080002  RH  096%=      5-min Rain = 0
KCR1 080128Z 03012KT 01/00 A3033 RMK A01 T00080002  RH  096%=      5-min Rain = 0
KCR1 080129Z 03011KT 01/00 A3033 RMK A01 T00080003  RH  096%=      5-min Rain = 0
KCR1 080130Z 03012KT 01/00 A3033 RMK A01 T00080003  RH  096%=      5-min Rain = 0
KCR1 080131Z 02011KT 01/00 A3033 RMK A01 T00080003  RH  096%=      5-min Rain = 0
KCR1 080132Z 03012KT 01/00 A3033 RMK A01 T00080003  RH  097%=      5-min Rain = 0
KCR1 080133Z 03013KT 01/00 A3033 RMK A01 T00080003  RH  097%=      5-min Rain = 0
KCR1 080134Z 03013KT 01/00 A3033 RMK A01 T00080003  RH  097%=      5-min Rain = 0
KCR1 080135Z 03011KT 01/00 A3033 RMK A01 T00080003  RH  097%=      5-min Rain = 0
KCR1 080136Z 02013KT 01/00 A3033 RMK A01 T00080003  RH  097%=      5-min Rain = 0
KCR1 080137Z 03012KT 01/00 A3033 RMK A01 T00080003  RH  097%=      5-min Rain = 0
KCR1 080138Z 03012KT 01/00 A3033 RMK A01 T00080003  RH  096%=      5-min Rain = 0
KCR1 080139Z 03011KT 01/00 A3033 RMK A01 T00080002  RH  096%=      5-min Rain = 0
KCR1 080140Z 02011KT 01/00 A3034 RMK A01 T00070002  RH  096%=      5-min Rain = 0
KCR1 080141Z 02013KT 01/00 A3034 RMK A01 T00080003  RH  096%=      5-min Rain = 0
KCR1 080142Z 03012KT 01/00 A3034 RMK A01 T00080002  RH  096%=      5-min Rain = 0
KCR1 080143Z 03013KT 01/00 A3034 RMK A01 T00070002  RH  096%=      5-min Rain = 0
KCR1 080144Z 03013KT 01/00 A3034 RMK A01 T00070002  RH  096%=      5-min Rain = 0
KCR1 080145Z 03012KT 01/00 A3034 RMK A01 T00070001  RH  096%=      5-min Rain = 0
KCR1 080146Z 03011KT 01/00 A3034 RMK A01 T00070002  RH  096%=      5-min Rain = 0
KCR1 080147Z 03012KT 01/00 A3034 RMK A01 T00070002  RH  096%=      5-min Rain = 0
KCR1 080148Z 03012KT 01/00 A3034 RMK A01 T00070002  RH  096%=      5-min Rain = 0
KCR1 080149Z 02011KT 01/00 A3034 RMK A01 T00070001  RH  096%=      5-min Rain = 0
KCR1 080150Z 03012KT 01/00 A3034 RMK A01 T00070001  RH  096%=      5-min Rain = 0
KCR1 080151Z 03010KT 01/00 A3034 RMK A01 T00070002  RH  096%=      5-min Rain = 0
KCR1 080152Z 03009KT 01/00 A3035 RMK A01 T00080002  RH  096%=      5-min Rain = 0
KCR1 080153Z 03011KT 01/00 A3035 RMK A01 T00070002  RH  096%=      5-min Rain = 0
KCR1 080154Z 03011KT 01/00 A3035 RMK A01 T00070002  RH  096%=      5-min Rain = 0
KCR1 080155Z 02011KT 01/00 A3035 RMK A01 T00070002  RH  096%=      5-min Rain = 0
KCR1 080156Z 02011KT 01/00 A3035 RMK A01 T00070002  RH  096%=      5-min Rain = 0
KCR1 080157Z 02010KT 01/00 A3035 RMK A01 T00080002  RH  096%=      5-min Rain = 0
KCR1 080158Z 02010KT 01/00 A3035 RMK A01 T00070002  RH  096%=      5-min Rain = 0.01
KCR1 080159Z 02010KT 01/00 A3035 RMK A01 T00080002  RH  096%=      5-min Rain = 0
KCR1 080200Z 03009KT 01/00 A3035 RMK A01 T00070002  RH  096%=      5-min Rain = 0
KCR1 080201Z 02010KT 01/00 A3035 RMK A01 T00070002  RH  096%=      5-min Rain = 0
KCR1 080202Z 02009KT 01/00 A3035 RMK A01 T00070002  RH  096%=      5-min Rain = 0
KCR1 080203Z 03010KT 01/00 A3035 RMK A01 T00080003  RH  097%=      5-min Rain = 0
KCR1 080204Z 03009KT 01/00 A3036 RMK A01 T00070003  RH  097%=      5-min Rain = 0
KCR1 080205Z 03010KT 01/00 A3036 RMK A01 T00070002  RH  097%=      5-min Rain = 0
KCR1 080206Z 03009KT 01/00 A3036 RMK A01 T00080003  RH  097%=      5-min Rain = 0.01
KCR1 080207Z 02011KT 01/00 A3036 RMK A01 T00080003  RH  097%=      5-min Rain = 0
KCR1 080208Z 02009KT 01/00 A3036 RMK A01 T00070002  RH  097%=      5-min Rain = 0
KCR1 080209Z 03009KT 01/00 A3036 RMK A01 T00070002  RH  097%=      5-min Rain = 0
KCR1 080210Z 03010KT 01/00 A3036 RMK A01 T00080003  RH  097%=      5-min Rain = 0
KCR1 080211Z 02010KT 01/00 A3036 RMK A01 T00070003  RH  097%=      5-min Rain = 0
KCR1 080212Z 03010KT 01/00 A3036 RMK A01 T00070003  RH  097%=      5-min Rain = 0
KCR1 080213Z 02010KT 01/00 A3036 RMK A01 T00080003  RH  097%=      5-min Rain = 0
KCR1 080214Z 03009KT 01/00 A3036 RMK A01 T00080003  RH  097%=      5-min Rain = 0
KCR1 080215Z 02010KT 01/00 A3036 RMK A01 T00070002  RH  097%=      5-min Rain = 0
KCR1 080216Z 02010KT 01/00 A3036 RMK A01 T00080003  RH  097%=      5-min Rain = 0
KCR1 080217Z 01011KT 01/00 A3036 RMK A01 T00070002  RH  097%=      5-min Rain = 0
KCR1 080218Z 02010KT 01/00 A3036 RMK A01 T00070002  RH  097%=      5-min Rain = 0
KCR1 080219Z 02010KT 01/00 A3036 RMK A01 T00070002  RH  097%=      5-min Rain = 0
KCR1 080220Z 02011KT 01/00 A3036 RMK A01 T00070002  RH  096%=      5-min Rain = 0
KCR1 080221Z 02010KT 01/00 A3036 RMK A01 T00070002  RH  096%=      5-min Rain = 0
KCR1 080222Z 02010KT 01/00 A3036 RMK A01 T00070002  RH  097%=      5-min Rain = 0
KCR1 080223Z 02010KT 01/00 A3036 RMK A01 T00070002  RH  097%=      5-min Rain = 0
KCR1 080224Z 02010KT 01/00 A3036 RMK A01 T00070002  RH  097%=      5-min Rain = 0
KCR1 080225Z 02011KT 01/00 A3035 RMK A01 T00070002  RH  097%=      5-min Rain = 0
KCR1 080226Z 02012KT 01/00 A3035 RMK A01 T00070002  RH  097%=      5-min Rain = 0
KCR1 080227Z 02012KT 01/00 A3035 RMK A01 T00060002  RH  097%=      5-min Rain = 0
KCR1 080228Z 02012KT 01/00 A3035 RMK A01 T00060002  RH  097%=      5-min Rain = 0
KCR1 080229Z 02010KT 01/00 A3035 RMK A01 T00060001  RH  097%=      5-min Rain = 0
KCR1 080230Z 02010KT 01/00 A3035 RMK A01 T00060001  RH  097%=      5-min Rain = 0
KCR1 080231Z 02010KT 01/00 A3035 RMK A01 T00060002  RH  097%=      5-min Rain = 0
KCR1 080232Z 02009KT 01/00 A3035 RMK A01 T00060002  RH  097%=      5-min Rain = 0
KCR1 080233Z 03011KT 01/00 A3035 RMK A01 T00060002  RH  097%=      5-min Rain = 0
KCR1 080234Z 03013KT 01/00 A3035 RMK A01 T00060002  RH  097%=      5-min Rain = 0
KCR1 080235Z 03012KT 01/00 A3035 RMK A01 T00060002  RH  097%=      5-min Rain = 0
KCR1 080236Z 03012KT 01/00 A3035 RMK A01 T00050001  RH  097%=      5-min Rain = 0
KCR1 080237Z 03010KT 01/00 A3035 RMK A01 T00050001  RH  097%=      5-min Rain = 0
KCR1 080238Z 02010KT 01/00 A3035 RMK A01 T00050001  RH  097%=      5-min Rain = 0.01
KCR1 080239Z 03010KT 01/00 A3034 RMK A01 T00060001  RH  097%=      5-min Rain = 0
KCR1 080240Z 02010KT 01/00 A3034 RMK A01 T00060002  RH  097%=      5-min Rain = 0
KCR1 080241Z 03011KT 01/00 A3034 RMK A01 T00060002  RH  097%=      5-min Rain = 0
KCR1 080242Z 03011KT 01/00 A3034 RMK A01 T00060002  RH  097%=      5-min Rain = 0
KCR1 080243Z 03009KT 01/00 A3034 RMK A01 T00060002  RH  097%=      5-min Rain = 0
KCR1 080244Z 03010KT 01/00 A3034 RMK A01 T00060002  RH  097%=      5-min Rain = 0
KCR1 080245Z 03011KT 01/00 A3034 RMK A01 T00060002  RH  097%=      5-min Rain = 0
KCR1 080246Z 02012KT 01/00 A3034 RMK A01 T00060002  RH  097%=      5-min Rain = 0
KCR1 080247Z 03010KT 01/00 A3034 RMK A01 T00050002  RH  097%=      5-min Rain = 0
KCR1 080248Z 03011KT 01/00 A3034 RMK A01 T00060002  RH  097%=      5-min Rain = 0
KCR1 080249Z 03011KT 01/00 A3034 RMK A01 T00060002  RH  097%=      5-min Rain = 0
KCR1 080250Z 03011KT 01/00 A3034 RMK A01 T00060002  RH  097%=      5-min Rain = 0
KCR1 080251Z 03010KT 01/00 A3035 RMK A01 T00060002  RH  097%=      5-min Rain = 0
KCR1 080252Z 03010KT 01/00 A3035 RMK A01 T00060002  RH  097%=      5-min Rain = 0
KCR1 080253Z 03010KT 01/00 A3035 RMK A01 T00050002  RH  097%=      5-min Rain = 0
KCR1 080254Z 03010KT 01/00 A3035 RMK A01 T00060002  RH  097%=      5-min Rain = 0
KCR1 080255Z 03011KT 01/00 A3035 RMK A01 T00060002  RH  097%=      5-min Rain = 0
KCR1 080256Z 03010KT 01/00 A3035 RMK A01 T00060002  RH  097%=      5-min Rain = 0
KCR1 080257Z 02010KT 01/00 A3035 RMK A01 T00060002  RH  098%=      5-min Rain = 0
KCR1 080258Z 02010KT 01/00 A3035 RMK A01 T00060002  RH  098%=      5-min Rain = 0
KCR1 080259Z 02010KT 01/00 A3035 RMK A01 T00060002  RH  098%=      5-min Rain = 0
KCR1 080300Z 02011KT 01/00 A3035 RMK A01 T00060002  RH  098%=      5-min Rain = 0
KCR1 080301Z 03011KT 01/00 A3035 RMK A01 T00060002  RH  097%=      5-min Rain = 0
KCR1 080302Z 02012KT 01/00 A3035 RMK A01 T00060002  RH  097%=      5-min Rain = 0
KCR1 080303Z 02012KT 01/00 A3035 RMK A01 T00050001  RH  097%=      5-min Rain = 0.01
KCR1 080304Z 02010KT 01/00 A3035 RMK A01 T00050001  RH  097%=      5-min Rain = 0
KCR1 080305Z 03010KT 01/00 A3034 RMK A01 T00050001  RH  097%=      5-min Rain = 0
KCR1 080306Z 03011KT 01/00 A3034 RMK A01 T00050001  RH  097%=      5-min Rain = 0
KCR1 080307Z 03012KT 01/00 A3034 RMK A01 T00050001  RH  097%=      5-min Rain = 0
KCR1 080308Z 03012KT 01/00 A3034 RMK A01 T00050001  RH  097%=      5-min Rain = 0
KCR1 080309Z 03011KT 01/00 A3035 RMK A01 T00050001  RH  097%=      5-min Rain = 0
KCR1 080310Z 03011KT 01/00 A3035 RMK A01 T00050001  RH  097%=      5-min Rain = 0
KCR1 080311Z 03009KT 01/00 A3035 RMK A01 T00050001  RH  097%=      5-min Rain = 0
KCR1 080312Z 03011KT 01/00 A3035 RMK A01 T00050001  RH  097%=      5-min Rain = 0
KCR1 080313Z 03010KT 01/00 A3035 RMK A01 T00050001  RH  097%=      5-min Rain = 0
KCR1 080314Z 03010KT 01/00 A3035 RMK A01 T00050001  RH  097%=      5-min Rain = 0
KCR1 080315Z 03010KT 01/00 A3035 RMK A01 T00050001  RH  097%=      5-min Rain = 0
KCR1 080316Z 03009KT 01/00 A3035 RMK A01 T00050001  RH  097%=      5-min Rain = 0
KCR1 080317Z 02009KT 01/00 A3035 RMK A01 T00050001  RH  097%=      5-min Rain = 0
KCR1 080318Z 02010KT 01/00 A3035 RMK A01 T00050001  RH  097%=      5-min Rain = 0
KCR1 080319Z 02010KT 01/00 A3035 RMK A01 T00050001  RH  097%=      5-min Rain = 0
KCR1 080320Z 02010KT 01/00 A3035 RMK A01 T00050001  RH  097%=      5-min Rain = 0
KCR1 080321Z 02011KT 01/00 A3035 RMK A01 T00050001  RH  097%=      5-min Rain = 0
KCR1 080322Z 02012KT 01/00 A3035 RMK A01 T00050001  RH  097%=      5-min Rain = 0
KCR1 080323Z 02009KT 01/00 A3035 RMK A01 T00050001  RH  097%=      5-min Rain = 0
KCR1 080324Z 02011KT 01/00 A3035 RMK A01 T00050002  RH  097%=      5-min Rain = 0
KCR1 080325Z 02011KT 01/00 A3035 RMK A01 T00050001  RH  097%=      5-min Rain = 0
KCR1 080326Z 02011KT 01/00 A3036 RMK A01 T00050001  RH  097%=      5-min Rain = 0
KCR1 080327Z 02011KT 01/00 A3036 RMK A01 T00050001  RH  097%=      5-min Rain = 0
KCR1 080328Z 02011KT 01/00 A3036 RMK A01 T00050001  RH  097%=      5-min Rain = 0
KCR1 080329Z 02010KT 01/00 A3036 RMK A01 T00050001  RH  097%=      5-min Rain = 0
KCR1 080330Z 02010KT 01/00 A3036 RMK A01 T00050001  RH  097%=      5-min Rain = 0
KCR1 080331Z 02009KT 01/00 A3036 RMK A01 T00050001  RH  097%=      5-min Rain = 0
KCR1 080332Z 02009KT 01/00 A3036 RMK A01 T00050001  RH  097%=      5-min Rain = 0
KCR1 080333Z 02010KT 01/00 A3036 RMK A01 T00050001  RH  097%=      5-min Rain = 0
KCR1 080334Z 02010KT 01/00 A3036 RMK A01 T00060002  RH  097%=      5-min Rain = 0
KCR1 080335Z 02009KT 01/00 A3036 RMK A01 T00060002  RH  097%=      5-min Rain = 0
KCR1 080336Z 02009KT 01/00 A3036 RMK A01 T00060002  RH  097%=      5-min Rain = 0
KCR1 080337Z 02009KT 01/00 A3036 RMK A01 T00050002  RH  097%=      5-min Rain = 0
KCR1 080338Z 02009KT 01/00 A3036 RMK A01 T00060002  RH  097%=      5-min Rain = 0
KCR1 080339Z 02008KT 01/00 A3036 RMK A01 T00060002  RH  097%=      5-min Rain = 0
KCR1 080340Z 02009KT 01/00 A3036 RMK A01 T00060002  RH  097%=      5-min Rain = 0
KCR1 080341Z 02011KT 01/00 A3036 RMK A01 T00060002  RH  098%=      5-min Rain = 0
KCR1 080342Z 02011KT 01/00 A3035 RMK A01 T00050002  RH  098%=      5-min Rain = 0
KCR1 080343Z 02011KT 01/00 A3035 RMK A01 T00050002  RH  098%=      5-min Rain = 0
KCR1 080344Z 02010KT 01/00 A3035 RMK A01 T00050002  RH  098%=      5-min Rain = 0
KCR1 080345Z 02011KT 01/00 A3035 RMK A01 T00060003  RH  098%=      5-min Rain = 0
KCR1 080346Z 02010KT 01/00 A3035 RMK A01 T00060002  RH  098%=      5-min Rain = 0
KCR1 080347Z 02012KT 01/00 A3035 RMK A01 T00050002  RH  098%=      5-min Rain = 0
KCR1 080348Z 02011KT 01/00 A3035 RMK A01 T00050001  RH  098%=      5-min Rain = 0
KCR1 080349Z 02011KT 01/00 A3035 RMK A01 T00050001  RH  098%=      5-min Rain = 0
KCR1 080350Z 02013KT 01/00 A3035 RMK A01 T00050001  RH  098%=      5-min Rain = 0
KCR1 080351Z 02012KT 00/00 A3035 RMK A01 T00040001  RH  098%=      5-min Rain = 0
KCR1 080352Z 02012KT 00/00 A3035 RMK A01 T00040001  RH  097%=      5-min Rain = 0
KCR1 080353Z 02010KT 00/00 A3035 RMK A01 T00040001  RH  097%=      5-min Rain = 0
KCR1 080354Z 03009KT 00/00 A3035 RMK A01 T00040001  RH  097%=      5-min Rain = 0
KCR1 080355Z 03010KT 00/00 A3035 RMK A01 T00040001  RH  097%=      5-min Rain = 0
KCR1 080356Z 02011KT 00/00 A3035 RMK A01 T00040001  RH  097%=      5-min Rain = 0
KCR1 080357Z 02012KT 00/00 A3035 RMK A01 T00040001  RH  097%=      5-min Rain = 0
KCR1 080358Z 03011KT 00/00 A3034 RMK A01 T00040001  RH  097%=      5-min Rain = 0
KCR1 080359Z 03010KT 00/00 A3034 RMK A01 T00040001  RH  097%=      5-min Rain = 0
KCR1 080400Z 03010KT 00/00 A3034 RMK A01 T00040001  RH  098%=      5-min Rain = 0
KCR1 080401Z 03008KT 00/00 A3034 RMK A01 T00040001  RH  098%=      5-min Rain = 0
KCR1 080402Z 03008KT 01/00 A3034 RMK A01 T00050002  RH  098%=      5-min Rain = 0
KCR1 080403Z 03009KT 01/00 A3034 RMK A01 T00050002  RH  098%=      5-min Rain = 0
KCR1 080404Z 02009KT 01/00 A3035 RMK A01 T00050002  RH  098%=      5-min Rain = 0
KCR1 080405Z 02011KT 01/00 A3035 RMK A01 T00050002  RH  098%=      5-min Rain = 0
KCR1 080406Z 02010KT 01/00 A3035 RMK A01 T00050002  RH  098%=      5-min Rain = 0
KCR1 080407Z 02012KT 01/00 A3035 RMK A01 T00050002  RH  098%=      5-min Rain = 0
KCR1 080408Z 03011KT 00/00 A3034 RMK A01 T00040001  RH  098%=      5-min Rain = 0
KCR1 080409Z 03009KT 00/00 A3035 RMK A01 T00030000  RH  098%=      5-min Rain = 0
KCR1 080410Z 03011KT 00/00 A3034 RMK A01 T00030000  RH  098%=      5-min Rain = 0
KCR1 080411Z 03010KT 00/00 A3034 RMK A01 T00030000  RH  098%=      5-min Rain = 0
KCR1 080412Z 03010KT 00/00 A3034 RMK A01 T00030000  RH  098%=      5-min Rain = 0
KCR1 080413Z 03010KT 00/00 A3034 RMK A01 T00030000  RH  098%=      5-min Rain = 0
KCR1 080414Z 03008KT 00/00 A3034 RMK A01 T00040000  RH  098%=      5-min Rain = 0
KCR1 080415Z 03010KT 00/00 A3034 RMK A01 T00040001  RH  098%=      5-min Rain = 0
KCR1 080416Z 03012KT 00/00 A3034 RMK A01 T00040001  RH  098%=      5-min Rain = 0
KCR1 080417Z 02011KT 00/00 A3034 RMK A01 T00040000  RH  098%=      5-min Rain = 0
KCR1 080418Z 03009KT 00/00 A3034 RMK A01 T00030000  RH  098%=      5-min Rain = 0
KCR1 080419Z 02010KT 00/00 A3034 RMK A01 T00030000  RH  098%=      5-min Rain = 0
KCR1 080420Z 02009KT 00/00 A3035 RMK A01 T00040001  RH  098%=      5-min Rain = 0.01
KCR1 080421Z 02010KT 00/00 A3035 RMK A01 T00040001  RH  098%=      5-min Rain = 0
KCR1 080422Z 02010KT 00/00 A3034 RMK A01 T00040001  RH  098%=      5-min Rain = 0
KCR1 080423Z 03009KT 00/00 A3034 RMK A01 T00040001  RH  098%=      5-min Rain = 0
KCR1 080424Z 02011KT 00/00 A3035 RMK A01 T00040001  RH  098%=      5-min Rain = 0
KCR1 080425Z 02011KT 00/00 A3035 RMK A01 T00040001  RH  098%=      5-min Rain = 0
KCR1 080426Z 02008KT 00/00 A3035 RMK A01 T00040002  RH  098%=      5-min Rain = 0
KCR1 080427Z 03008KT 00/00 A3035 RMK A01 T00040001  RH  098%=      5-min Rain = 0
KCR1 080428Z 02010KT 00/00 A3035 RMK A01 T00040002  RH  098%=      5-min Rain = 0
KCR1 080429Z 02008KT 00/00 A3035 RMK A01 T00040001  RH  098%=      5-min Rain = 0
KCR1 080430Z 02008KT 01/00 A3035 RMK A01 T00050002  RH  098%=      5-min Rain = 0
KCR1 080431Z 02010KT 01/00 A3034 RMK A01 T00050002  RH  098%=      5-min Rain = 0
KCR1 080432Z 02009KT 01/00 A3034 RMK A01 T00050002  RH  098%=      5-min Rain = 0
KCR1 080433Z 02009KT 01/00 A3034 RMK A01 T00050002  RH  098%=      5-min Rain = 0
KCR1 080434Z 02010KT 01/00 A3034 RMK A01 T00050002  RH  098%=      5-min Rain = 0
KCR1 080435Z 02008KT 01/00 A3034 RMK A01 T00050002  RH  098%=      5-min Rain = 0
KCR1 080436Z 02009KT 01/00 A3034 RMK A01 T00050002  RH  098%=      5-min Rain = 0
KCR1 080437Z 02008KT 01/00 A3034 RMK A01 T00050003  RH  098%=      5-min Rain = 0
KCR1 080438Z 02009KT 01/00 A3034 RMK A01 T00050003  RH  098%=      5-min Rain = 0
KCR1 080439Z 02007KT 01/00 A3034 RMK A01 T00050003  RH  098%=      5-min Rain = 0
KCR1 080440Z 01008KT 01/00 A3034 RMK A01 T00050003  RH  098%=      5-min Rain = 0
KCR1 080441Z 02008KT 01/00 A3034 RMK A01 T00050003  RH  098%=      5-min Rain = 0
KCR1 080442Z 02008KT 01/00 A3034 RMK A01 T00050003  RH  098%=      5-min Rain = 0
KCR1 080443Z 02009KT 01/00 A3034 RMK A01 T00050003  RH  098%=      5-min Rain = 0
KCR1 080444Z 02008KT 01/00 A3034 RMK A01 T00050003  RH  098%=      5-min Rain = 0
KCR1 080445Z 01008KT 01/00 A3034 RMK A01 T00050003  RH  098%=      5-min Rain = 0.01
KCR1 080446Z 01010KT 01/00 A3034 RMK A01 T00050003  RH  098%=      5-min Rain = 0
KCR1 080447Z 01010KT 01/00 A3034 RMK A01 T00050003  RH  098%=      5-min Rain = 0
KCR1 080448Z 01011KT 01/00 A3034 RMK A01 T00050003  RH  098%=      5-min Rain = 0
KCR1 080449Z 01011KT 01/00 A3034 RMK A01 T00050003  RH  098%=      5-min Rain = 0
KCR1 080450Z 01012KT 01/00 A3034 RMK A01 T00050002  RH  098%=      5-min Rain = 0
KCR1 080451Z 01011KT 00/00 A3034 RMK A01 T00040002  RH  098%=      5-min Rain = 0
KCR1 080452Z 01011KT 00/00 A3034 RMK A01 T00040002  RH  098%=      5-min Rain = 0
KCR1 080453Z 01009KT 00/00 A3034 RMK A01 T00040002  RH  098%=      5-min Rain = 0
KCR1 080454Z 01012KT 00/00 A3034 RMK A01 T00040002  RH  098%=      5-min Rain = 0
KCR1 080455Z 01013KT 00/00 A3034 RMK A01 T00040001  RH  098%=      5-min Rain = 0
KCR1 080456Z 01010KT 00/00 A3034 RMK A01 T00030000  RH  098%=      5-min Rain = 0
KCR1 080457Z 01011KT 00/00 A3034 RMK A01 T00030001  RH  098%=      5-min Rain = 0
KCR1 080458Z 02011KT 00/00 A3034 RMK A01 T00030000  RH  098%=      5-min Rain = 0
KCR1 080459Z 02012KT 00/00 A3034 RMK A01 T00030000  RH  098%=      5-min Rain = 0
KCR1 080500Z 01011KT 00/00 A3034 RMK A01 T00030000  RH  098%=      5-min Rain = 0
KCR1 080501Z 01010KT 00/00 A3034 RMK A01 T00030000  RH  098%=      5-min Rain = 0
KCR1 080502Z 02011KT 00/00 A3034 RMK A01 T00030000  RH  098%=      5-min Rain = 0
KCR1 080503Z 02010KT 00/00 A3034 RMK A01 T00030000  RH  098%=      5-min Rain = 0
KCR1 080504Z 01009KT 00/00 A3034 RMK A01 T00040000  RH  098%=      5-min Rain = 0
KCR1 080505Z 01009KT 00/00 A3034 RMK A01 T00040001  RH  098%=      5-min Rain = 0
KCR1 080506Z 01008KT 00/00 A3034 RMK A01 T00040000  RH  098%=      5-min Rain = 0
KCR1 080507Z 01009KT 00/00 A3034 RMK A01 T00040001  RH  098%=      5-min Rain = 0
KCR1 080508Z 00008KT 00/00 A3034 RMK A01 T00040001  RH  098%=      5-min Rain = 0
KCR1 080509Z 00009KT 00/00 A3034 RMK A01 T00040001  RH  098%=      5-min Rain = 0
KCR1 080510Z 00010KT 00/00 A3034 RMK A01 T00040002  RH  098%=      5-min Rain = 0.01
KCR1 080511Z 01008KT 00/00 A3034 RMK A01 T00040002  RH  098%=      5-min Rain = 0
KCR1 080512Z 01010KT 00/00 A3034 RMK A01 T00040002  RH  098%=      5-min Rain = 0
KCR1 080513Z 01008KT 00/00 A3034 RMK A01 T00040001  RH  098%=      5-min Rain = 0
KCR1 080514Z 00008KT 00/00 A3034 RMK A01 T00040002  RH  098%=      5-min Rain = 0
KCR1 080515Z 00010KT 01/00 A3034 RMK A01 T00050002  RH  098%=      5-min Rain = 0
KCR1 080516Z 01009KT 01/00 A3034 RMK A01 T00050002  RH  098%=      5-min Rain = 0
KCR1 080517Z 00009KT 01/00 A3034 RMK A01 T00050002  RH  098%=      5-min Rain = 0
KCR1 080518Z 00009KT 01/00 A3034 RMK A01 T00050002  RH  098%=      5-min Rain = 0
KCR1 080519Z 36010KT 01/00 A3034 RMK A01 T00050003  RH  098%=      5-min Rain = 0
KCR1 080520Z 00010KT 01/00 A3034 RMK A01 T00050003  RH  098%=      5-min Rain = 0
KCR1 080521Z 00011KT 01/00 A3034 RMK A01 T00050003  RH  098%=      5-min Rain = 0.01
KCR1 080522Z 00012KT 01/00 A3034 RMK A01 T00050003  RH  098%=      5-min Rain = 0
KCR1 080523Z 00011KT 01/00 A3033 RMK A01 T00050003  RH  098%=      5-min Rain = 0
KCR1 080524Z 00009KT 01/00 A3033 RMK A01 T00050003  RH  098%=      5-min Rain = 0
KCR1 080525Z 01011KT 01/00 A3033 RMK A01 T00050003  RH  098%=      5-min Rain = 0
KCR1 080526Z 01011KT 01/00 A3033 RMK A01 T00050003  RH  098%=      5-min Rain = 0
KCR1 080527Z 01011KT 01/00 A3033 RMK A01 T00050002  RH  098%=      5-min Rain = 0.01
KCR1 080528Z 01012KT 01/00 A3033 RMK A01 T00050002  RH  098%=      5-min Rain = 0
KCR1 080529Z 01012KT 00/00 A3033 RMK A01 T00040002  RH  098%=      5-min Rain = 0
KCR1 080530Z 01011KT 00/00 A3033 RMK A01 T00040001  RH  098%=      5-min Rain = 0
KCR1 080531Z 01011KT 00/00 A3033 RMK A01 T00040002  RH  098%=      5-min Rain = 0
KCR1 080532Z 01010KT 00/00 A3033 RMK A01 T00040002  RH  098%=      5-min Rain = 0
KCR1 080533Z 01011KT 00/00 A3033 RMK A01 T00040001  RH  098%=      5-min Rain = 0.01
KCR1 080534Z 01010KT 00/00 A3033 RMK A01 T00040002  RH  098%=      5-min Rain = 0
KCR1 080535Z 01009KT 00/00 A3033 RMK A01 T00040001  RH  098%=      5-min Rain = 0
KCR1 080536Z 00010KT 00/00 A3033 RMK A01 T00040002  RH  098%=      5-min Rain = 0
KCR1 080537Z 00009KT 00/00 A3033 RMK A01 T00040002  RH  099%=      5-min Rain = 0
KCR1 080538Z 00009KT 00/00 A3033 RMK A01 T00040002  RH  099%=      5-min Rain = 0
KCR1 080539Z 00011KT 00/00 A3033 RMK A01 T00040002  RH  099%=      5-min Rain = 0.01
KCR1 080540Z 00012KT 00/00 A3032 RMK A01 T00040002  RH  099%=      5-min Rain = 0
KCR1 080541Z 01011KT 00/00 A3032 RMK A01 T00040001  RH  099%=      5-min Rain = 0
KCR1 080542Z 01012KT 00/00 A3032 RMK A01 T00030001  RH  099%=      5-min Rain = 0
KCR1 080543Z 01011KT 00/00 A3032 RMK A01 T00030001  RH  099%=      5-min Rain = 0
KCR1 080544Z 01010KT 00/00 A3032 RMK A01 T00030001  RH  099%=      5-min Rain = 0
KCR1 080545Z 02012KT 00/00 A3032 RMK A01 T00030001  RH  099%=      5-min Rain = 0
KCR1 080546Z 02012KT 00/00 A3032 RMK A01 T00030001  RH  099%=      5-min Rain = 0
KCR1 080547Z 02012KT 00/00 A3032 RMK A01 T00030001  RH  099%=      5-min Rain = 0.01
KCR1 080548Z 02012KT 00/00 A3032 RMK A01 T00030001  RH  099%=      5-min Rain = 0
KCR1 080549Z 02013KT 00/00 A3032 RMK A01 T00030001  RH  099%=      5-min Rain = 0
KCR1 080550Z 02013KT 00/00 A3032 RMK A01 T00030001  RH  099%=      5-min Rain = 0
KCR1 080551Z 02012KT 00/00 A3032 RMK A01 T00020001  RH  099%=      5-min Rain = 0
KCR1 080552Z 02012KT 00/00 A3032 RMK A01 T00020001  RH  099%=      5-min Rain = 0
KCR1 080553Z 02012KT 00/00 A3032 RMK A01 T00020000  RH  099%=      5-min Rain = 0
KCR1 080554Z 02011KT 00/00 A3032 RMK A01 T00020000  RH  099%=      5-min Rain = 0
KCR1 080555Z 02011KT 00/00 A3032 RMK A01 T00020000  RH  099%=      5-min Rain = 0
KCR1 080556Z 02011KT 00/00 A3032 RMK A01 T00030001  RH  099%=      5-min Rain = 0
KCR1 080557Z 01013KT 00/00 A3032 RMK A01 T00030001  RH  099%=      5-min Rain = 0
KCR1 080558Z 01011KT 00/00 A3032 RMK A01 T00030001  RH  099%=      5-min Rain = 0.01
KCR1 080559Z 01011KT 00/00 A3032 RMK A01 T00030001  RH  099%=      5-min Rain = 0

Page generated in 0.0701 seconds.